Time,TemperatureF,DewpointF,PressureIn,WindDirection,WindDirectionDegrees,WindSpeedMPH,WindSpeedGustMPH,Humidity,HourlyPrecipIn,Conditions,Clouds,dailyrainin,SoftwareType,DateUTC
2013-07-11 00:00:00,72.6,70.8,29.83,NW,320,0.0,1.0,94,0.00,,---,0.03,VWS V14.01,2013-07-11 04:00:00,
2013-07-11 00:01:00,72.6,70.8,29.83,NW,320,0.0,1.0,94,0.00,,---,0.03,VWS V14.01,2013-07-11 04:01:00,
2013-07-11 00:06:00,72.4,70.6,29.81,NW,320,0.0,0.0,94,0.00,,---,0.00,VWS V14.01,2013-07-11 04:06:00,
2013-07-11 00:11:00,72.2,70.4,29.81,NW,320,0.0,0.0,94,0.00,,---,0.00,VWS V14.01,2013-07-11 04:11:00,
2013-07-11 00:12:00,72.2,70.4,29.81,NW,320,0.0,0.0,94,0.00,,---,0.00,VWS V14.01,2013-07-11 04:12:00,
2013-07-11 00:16:00,72.0,70.2,29.81,NW,319,0.0,0.0,94,0.00,,---,0.00,VWS V14.01,2013-07-11 04:16:00,
2013-07-11 00:17:00,72.0,70.2,29.81,NW,320,0.0,0.0,94,0.00,,---,0.00,VWS V14.01,2013-07-11 04:17:00,
2013-07-11 00:18:00,72.0,70.2,29.81,NW,319,0.0,0.0,94,0.00,,---,0.00,VWS V14.01,2013-07-11 04:18:00,
2013-07-11 00:21:00,72.0,70.2,29.81,NW,320,0.0,0.0,94,0.00,,---,0.00,VWS V14.01,2013-07-11 04:21:00,
2013-07-11 00:22:00,72.0,70.2,29.81,NW,319,0.0,0.0,94,0.00,,---,0.00,VWS V14.01,2013-07-11 04:22:00,
2013-07-11 00:23:00,72.0,70.2,29.81,NW,320,0.0,0.0,94,0.00,,---,0.00,VWS V14.01,2013-07-11 04:23:00,
2013-07-11 00:27:00,71.9,70.1,29.81,NW,320,0.0,0.0,94,0.00,,---,0.00,VWS V14.01,2013-07-11 04:27:00,
2013-07-11 00:28:00,71.9,70.1,29.81,NW,320,0.0,0.0,94,0.00,,---,0.00,VWS V14.01,2013-07-11 04:28:00,
2013-07-11 00:29:00,71.8,70.0,29.81,NW,319,0.0,0.0,94,0.00,,---,0.00,VWS V14.01,2013-07-11 04:29:00,
2013-07-11 00:33:00,71.7,69.9,29.81,NW,320,0.0,1.0,94,0.00,,---,0.00,VWS V14.01,2013-07-11 04:33:00,
2013-07-11 00:34:00,71.7,69.9,29.81,NW,320,0.0,1.0,94,0.00,,---,0.00,VWS V14.01,2013-07-11 04:34:00,
2013-07-11 00:39:00,71.6,69.5,29.81,NW,320,0.0,0.0,93,0.00,,---,0.00,VWS V14.01,2013-07-11 04:39:00,
2013-07-11 00:40:00,71.6,69.5,29.81,NW,319,0.0,0.0,93,0.00,,---,0.00,VWS V14.01,2013-07-11 04:40:00,
2013-07-11 00:44:00,71.7,69.3,29.80,NW,319,0.0,0.0,92,0.00,,---,0.00,VWS V14.01,2013-07-11 04:44:00,
2013-07-11 00:45:00,71.7,69.3,29.80,NW,319,0.0,0.0,92,0.00,,---,0.00,VWS V14.01,2013-07-11 04:45:00,
2013-07-11 00:49:00,71.9,69.1,29.80,NW,320,0.0,0.0,91,0.00,,---,0.00,VWS V14.01,2013-07-11 04:49:00,
2013-07-11 00:50:00,71.9,69.1,29.80,NW,319,0.0,0.0,91,0.00,,---,0.00,VWS V14.01,2013-07-11 04:50:00,
2013-07-11 00:54:00,72.0,68.9,29.80,NW,320,0.0,0.0,90,0.00,,---,0.00,VWS V14.01,2013-07-11 04:54:00,
2013-07-11 00:55:00,72.0,68.9,29.80,NW,320,0.0,0.0,90,0.00,,---,0.00,VWS V14.01,2013-07-11 04:55:00,
2013-07-11 00:59:00,72.2,68.8,29.80,NW,319,0.0,1.0,89,0.00,,---,0.00,VWS V14.01,2013-07-11 04:59:00,
2013-07-11 01:00:00,72.2,68.4,29.80,NW,319,0.0,1.0,88,0.00,,---,0.00,VWS V14.01,2013-07-11 05:00:00,
2013-07-11 01:01:00,72.3,68.6,29.80,NW,319,0.0,1.0,88,0.00,,---,0.00,VWS V14.01,2013-07-11 05:01:00,
2013-07-11 01:05:00,72.5,68.8,29.80,NW,319,0.0,0.0,88,0.00,,---,0.00,VWS V14.01,2013-07-11 05:05:00,
2013-07-11 01:06:00,72.5,68.8,29.80,NW,319,0.0,0.0,88,0.00,,---,0.00,VWS V14.01,2013-07-11 05:06:00,
2013-07-11 01:10:00,72.6,68.8,29.80,NW,319,0.0,0.0,88,0.00,,---,0.00,VWS V14.01,2013-07-11 05:10:00,
2013-07-11 01:11:00,72.6,68.8,29.80,NW,319,0.0,0.0,88,0.00,,---,0.00,VWS V14.01,2013-07-11 05:11:00,
2013-07-11 01:15:00,72.7,68.9,29.80,NW,319,0.0,1.0,88,0.00,,---,0.00,VWS V14.01,2013-07-11 05:15:00,
2013-07-11 01:16:00,72.7,68.9,29.80,NW,319,0.0,1.0,88,0.00,,---,0.00,VWS V14.01,2013-07-11 05:16:00,
2013-07-11 01:17:00,72.7,68.9,29.80,NW,319,0.0,1.0,88,0.00,,---,0.00,VWS V14.01,2013-07-11 05:17:00,
2013-07-11 01:20:00,72.7,68.9,29.80,NW,319,0.0,1.0,88,0.00,,---,0.00,VWS V14.01,2013-07-11 05:20:00,
2013-07-11 01:21:00,72.7,68.9,29.80,NW,319,0.0,1.0,88,0.00,,---,0.00,VWS V14.01,2013-07-11 05:21:00,
2013-07-11 01:22:00,72.7,69.3,29.80,NW,319,0.0,1.0,89,0.00,,---,0.00,VWS V14.01,2013-07-11 05:22:00,
2013-07-11 01:26:00,72.5,69.1,29.81,West,269,0.0,2.0,89,0.00,,---,0.00,VWS V14.01,2013-07-11 05:26:00,
2013-07-11 01:27:00,72.4,69.3,29.81,West,268,0.0,2.0,90,0.00,,---,0.00,VWS V14.01,2013-07-11 05:27:00,
2013-07-11 01:28:00,72.4,69.3,29.81,West,268,0.0,2.0,90,0.00,,---,0.00,VWS V14.01,2013-07-11 05:28:00,
2013-07-11 01:31:00,72.2,69.4,29.81,West,268,0.0,2.0,91,0.00,,---,0.00,VWS V14.01,2013-07-11 05:31:00,
2013-07-11 01:32:00,72.1,69.3,29.81,WSW,248,0.0,2.0,91,0.00,,---,0.00,VWS V14.01,2013-07-11 05:32:00,
2013-07-11 01:33:00,72.0,69.2,29.81,WSW,248,0.0,2.0,91,0.00,,---,0.00,VWS V14.01,2013-07-11 05:33:00,
2013-07-11 01:36:00,71.8,69.3,29.81,WSW,248,0.0,2.0,92,0.00,,---,0.00,VWS V14.01,2013-07-11 05:36:00,
2013-07-11 01:37:00,71.8,69.3,29.81,WSW,248,0.0,2.0,92,0.00,,---,0.00,VWS V14.01,2013-07-11 05:37:00,
2013-07-11 01:38:00,71.7,69.3,29.81,WSW,248,0.0,2.0,92,0.00,,---,0.00,VWS V14.01,2013-07-11 05:38:00,
2013-07-11 01:42:00,71.4,69.3,29.81,WSW,246,0.0,3.0,93,0.00,,---,0.00,VWS V14.01,2013-07-11 05:42:00,
2013-07-11 01:43:00,71.3,69.2,29.81,WSW,246,0.0,3.0,93,0.00,,---,0.00,VWS V14.01,2013-07-11 05:43:00,
2013-07-11 01:47:00,71.1,69.3,29.81,WSW,246,0.0,3.0,94,0.00,,---,0.00,VWS V14.01,2013-07-11 05:47:00,
2013-07-11 01:48:00,71.0,69.2,29.81,WSW,246,0.0,3.0,94,0.00,,---,0.00,VWS V14.01,2013-07-11 05:48:00,
2013-07-11 01:49:00,70.9,69.1,29.81,WSW,246,0.0,3.0,94,0.00,,---,0.00,VWS V14.01,2013-07-11 05:49:00,
2013-07-11 01:52:00,70.8,69.0,29.81,WSW,246,1.0,3.0,94,0.00,,---,0.00,VWS V14.01,2013-07-11 05:52:00,
2013-07-11 01:53:00,70.7,68.9,29.81,WSW,246,0.0,3.0,94,0.00,,---,0.00,VWS V14.01,2013-07-11 05:53:00,
2013-07-11 01:55:00,70.6,69.1,29.81,WSW,246,0.0,3.0,95,0.00,,---,0.00,VWS V14.01,2013-07-11 05:55:00,
2013-07-11 01:58:00,70.5,69.0,29.81,WSW,246,0.0,3.0,95,0.00,,---,0.00,VWS V14.01,2013-07-11 05:58:00,
2013-07-11 02:00:00,70.4,68.9,29.82,WSW,246,0.0,3.0,95,0.00,,---,0.00,VWS V14.01,2013-07-11 06:00:00,
2013-07-11 02:03:00,70.3,68.5,29.82,WSW,246,0.0,3.0,94,0.00,,---,0.00,VWS V14.01,2013-07-11 06:03:00,
2013-07-11 02:04:00,70.2,68.4,29.82,WSW,246,0.0,3.0,94,0.00,,---,0.00,VWS V14.01,2013-07-11 06:04:00,
2013-07-11 02:05:00,70.2,68.4,29.83,WSW,246,1.0,1.0,94,0.00,,---,0.00,VWS V14.01,2013-07-11 06:05:00,
2013-07-11 02:06:00,70.1,68.3,29.83,WSW,246,0.0,1.0,94,0.00,,---,0.00,VWS V14.01,2013-07-11 06:06:00,
2013-07-11 02:09:00,70.1,68.3,29.83,West,262,0.0,1.0,94,0.00,,---,0.00,VWS V14.01,2013-07-11 06:09:00,
2013-07-11 02:10:00,70.1,68.3,29.83,West,262,0.0,2.0,94,0.00,,---,0.00,VWS V14.01,2013-07-11 06:10:00,
2013-07-11 02:11:00,70.1,68.3,29.83,West,262,0.0,2.0,94,0.00,,---,0.00,VWS V14.01,2013-07-11 06:11:00,
2013-07-11 02:14:00,70.1,68.3,29.83,West,268,0.0,3.0,94,0.00,,---,0.00,VWS V14.01,2013-07-11 06:14:00,
2013-07-11 02:15:00,70.1,68.3,29.83,West,268,1.0,3.0,94,0.00,,---,0.00,VWS V14.01,2013-07-11 06:15:00,
2013-07-11 02:16:00,70.1,68.3,29.83,West,268,2.0,3.0,94,0.00,,---,0.00,VWS V14.01,2013-07-11 06:16:00,
2013-07-11 02:19:00,70.0,68.2,29.83,West,268,0.0,3.0,94,0.00,,---,0.00,VWS V14.01,2013-07-11 06:19:00,
2013-07-11 02:20:00,70.0,68.2,29.83,West,268,0.0,3.0,94,0.00,,---,0.00,VWS V14.01,2013-07-11 06:20:00,
2013-07-11 02:21:00,69.9,68.1,29.83,West,268,0.0,3.0,94,0.00,,---,0.00,VWS V14.01,2013-07-11 06:21:00,
2013-07-11 02:22:00,69.9,68.1,29.83,West,268,0.0,3.0,94,0.00,,---,0.00,VWS V14.01,2013-07-11 06:22:00,
2013-07-11 02:25:00,69.8,68.0,29.84,West,268,0.0,3.0,94,0.00,,---,0.00,VWS V14.01,2013-07-11 06:25:00,
2013-07-11 02:27:00,69.8,68.0,29.84,West,268,0.0,3.0,94,0.00,,---,0.00,VWS V14.01,2013-07-11 06:27:00,
2013-07-11 02:28:00,69.7,67.9,29.83,West,268,0.0,3.0,94,0.00,,---,0.00,VWS V14.01,2013-07-11 06:28:00,
2013-07-11 02:30:00,69.7,67.9,29.84,West,268,1.0,3.0,94,0.00,,---,0.00,VWS V14.01,2013-07-11 06:30:00,
2013-07-11 02:31:00,69.7,67.6,29.84,West,268,1.0,3.0,93,0.00,,---,0.00,VWS V14.01,2013-07-11 06:31:00,
2013-07-11 02:32:00,69.6,67.8,29.83,West,268,1.0,3.0,94,0.00,,---,0.00,VWS V14.01,2013-07-11 06:32:00,
2013-07-11 02:33:00,69.7,67.9,29.83,West,268,1.0,3.0,94,0.00,,---,0.00,VWS V14.01,2013-07-11 06:33:00,
2013-07-11 02:35:00,69.6,67.8,29.83,West,268,2.0,2.0,94,0.00,,---,0.00,VWS V14.01,2013-07-11 06:35:00,
2013-07-11 02:36:00,69.6,67.8,29.83,West,268,0.0,2.0,94,0.00,,---,0.00,VWS V14.01,2013-07-11 06:36:00,
2013-07-11 02:37:00,69.5,67.7,29.83,West,268,0.0,2.0,94,0.00,,---,0.00,VWS V14.01,2013-07-11 06:37:00,
2013-07-11 02:38:00,69.5,67.7,29.84,West,268,1.0,2.0,94,0.00,,---,0.00,VWS V14.01,2013-07-11 06:38:00,
2013-07-11 02:39:00,69.5,67.7,29.83,West,268,0.0,2.0,94,0.00,,---,0.00,VWS V14.01,2013-07-11 06:39:00,
2013-07-11 02:40:00,69.5,67.7,29.83,West,268,0.0,2.0,94,0.00,,---,0.00,VWS V14.01,2013-07-11 06:40:00,
2013-07-11 02:41:00,69.5,67.7,29.83,West,268,1.0,2.0,94,0.00,,---,0.00,VWS V14.01,2013-07-11 06:41:00,
2013-07-11 02:42:00,69.5,67.7,29.83,West,268,0.0,2.0,94,0.00,,---,0.00,VWS V14.01,2013-07-11 06:42:00,
2013-07-11 02:44:00,69.4,67.6,29.83,West,268,0.0,2.0,94,0.00,,---,0.00,VWS V14.01,2013-07-11 06:44:00,
2013-07-11 02:46:00,69.4,67.6,29.83,West,268,0.0,2.0,94,0.00,,---,0.00,VWS V14.01,2013-07-11 06:46:00,
2013-07-11 02:48:00,69.4,67.6,29.83,West,268,0.0,2.0,94,0.00,,---,0.00,VWS V14.01,2013-07-11 06:48:00,
2013-07-11 02:49:00,69.4,67.6,29.83,West,268,0.0,2.0,94,0.00,,---,0.00,VWS V14.01,2013-07-11 06:49:00,
2013-07-11 02:50:00,69.3,67.5,29.83,West,268,0.0,2.0,94,0.00,,---,0.00,VWS V14.01,2013-07-11 06:50:00,
2013-07-11 02:51:00,69.3,67.5,29.83,West,268,0.0,2.0,94,0.00,,---,0.00,VWS V14.01,2013-07-11 06:51:00,
2013-07-11 02:52:00,69.3,67.5,29.83,West,268,0.0,2.0,94,0.00,,---,0.00,VWS V14.01,2013-07-11 06:52:00,
2013-07-11 02:53:00,69.3,67.5,29.83,West,268,0.0,2.0,94,0.00,,---,0.00,VWS V14.01,2013-07-11 06:53:00,
2013-07-11 02:55:00,69.2,67.4,29.83,West,268,0.0,2.0,94,0.00,,---,0.00,VWS V14.01,2013-07-11 06:55:00,
2013-07-11 02:57:00,69.2,67.4,29.83,West,268,1.0,2.0,94,0.00,,---,0.00,VWS V14.01,2013-07-11 06:57:00,
2013-07-11 02:58:00,69.2,67.4,29.83,West,268,1.0,2.0,94,0.00,,---,0.00,VWS V14.01,2013-07-11 06:58:00,
2013-07-11 03:00:00,69.2,67.4,29.83,West,268,0.0,2.0,94,0.00,,---,0.00,VWS V14.01,2013-07-11 07:00:00,
2013-07-11 03:02:00,69.1,67.3,29.83,West,268,0.0,2.0,94,0.00,,---,0.00,VWS V14.01,2013-07-11 07:02:00,
2013-07-11 03:03:00,69.1,67.3,29.83,West,268,0.0,2.0,94,0.00,,---,0.00,VWS V14.01,2013-07-11 07:03:00,
2013-07-11 03:05:00,69.1,67.3,29.82,West,268,0.0,1.0,94,0.00,,---,0.00,VWS V14.01,2013-07-11 07:05:00,
2013-07-11 03:07:00,69.1,67.3,29.82,West,268,0.0,2.0,94,0.00,,---,0.00,VWS V14.01,2013-07-11 07:07:00,
2013-07-11 03:09:00,69.0,67.2,29.83,West,268,0.0,2.0,94,0.00,,---,0.00,VWS V14.01,2013-07-11 07:09:00,
2013-07-11 03:10:00,69.0,67.2,29.83,West,268,0.0,2.0,94,0.00,,---,0.00,VWS V14.01,2013-07-11 07:10:00,
2013-07-11 03:11:00,69.0,67.2,29.83,West,268,0.0,2.0,94,0.00,,---,0.00,VWS V14.01,2013-07-11 07:11:00,
2013-07-11 03:13:00,69.1,67.3,29.83,West,268,0.0,2.0,94,0.00,,---,0.00,VWS V14.01,2013-07-11 07:13:00,
2013-07-11 03:15:00,69.0,67.2,29.83,West,268,2.0,2.0,94,0.00,,---,0.00,VWS V14.01,2013-07-11 07:15:00,
2013-07-11 03:16:00,69.0,67.2,29.83,West,268,0.0,3.0,94,0.00,,---,0.00,VWS V14.01,2013-07-11 07:16:00,
2013-07-11 03:18:00,69.0,67.2,29.83,West,268,0.0,3.0,94,0.00,,---,0.00,VWS V14.01,2013-07-11 07:18:00,
2013-07-11 03:20:00,69.0,67.2,29.83,West,268,0.0,3.0,94,0.00,,---,0.00,VWS V14.01,2013-07-11 07:20:00,
2013-07-11 03:21:00,69.0,67.2,29.83,West,268,0.0,3.0,94,0.00,,---,0.00,VWS V14.01,2013-07-11 07:21:00,
2013-07-11 03:22:00,69.0,67.2,29.83,West,268,0.0,3.0,94,0.00,,---,0.00,VWS V14.01,2013-07-11 07:22:00,
2013-07-11 03:23:00,69.0,67.2,29.83,West,268,0.0,3.0,94,0.00,,---,0.00,VWS V14.01,2013-07-11 07:23:00,
2013-07-11 03:25:00,69.0,67.2,29.82,West,268,0.0,3.0,94,0.00,,---,0.00,VWS V14.01,2013-07-11 07:25:00,
2013-07-11 03:26:00,69.0,67.2,29.82,West,268,0.0,3.0,94,0.00,,---,0.00,VWS V14.01,2013-07-11 07:26:00,
2013-07-11 03:27:00,69.0,67.2,29.83,West,268,0.0,3.0,94,0.00,,---,0.00,VWS V14.01,2013-07-11 07:27:00,
2013-07-11 03:28:00,69.0,67.2,29.83,West,268,0.0,3.0,94,0.00,,---,0.00,VWS V14.01,2013-07-11 07:28:00,
2013-07-11 03:29:00,69.0,67.2,29.83,West,268,0.0,3.0,94,0.00,,---,0.00,VWS V14.01,2013-07-11 07:29:00,
2013-07-11 03:31:00,69.0,67.2,29.83,West,268,0.0,3.0,94,0.00,,---,0.00,VWS V14.01,2013-07-11 07:31:00,
2013-07-11 03:32:00,69.0,67.2,29.83,West,268,0.0,3.0,94,0.00,,---,0.00,VWS V14.01,2013-07-11 07:32:00,
2013-07-11 03:33:00,69.0,67.2,29.83,West,268,0.0,3.0,94,0.00,,---,0.00,VWS V14.01,2013-07-11 07:33:00,
2013-07-11 03:34:00,69.0,67.2,29.83,West,268,0.0,3.0,94,0.00,,---,0.00,VWS V14.01,2013-07-11 07:34:00,
2013-07-11 03:36:00,68.9,67.1,29.83,West,268,0.0,0.0,94,0.00,,---,0.00,VWS V14.01,2013-07-11 07:36:00,
2013-07-11 03:37:00,68.9,67.1,29.83,West,268,0.0,1.0,94,0.00,,---,0.00,VWS V14.01,2013-07-11 07:37:00,
2013-07-11 03:38:00,68.9,67.1,29.83,West,268,0.0,1.0,94,0.00,,---,0.00,VWS V14.01,2013-07-11 07:38:00,
2013-07-11 03:39:00,68.9,66.8,29.83,West,268,0.0,1.0,93,0.00,,---,0.00,VWS V14.01,2013-07-11 07:39:00,
2013-07-11 03:41:00,69.0,66.9,29.83,West,268,0.0,2.0,93,0.00,,---,0.00,VWS V14.01,2013-07-11 07:41:00,
2013-07-11 03:42:00,68.9,66.8,29.83,West,268,0.0,2.0,93,0.00,,---,0.00,VWS V14.01,2013-07-11 07:42:00,
2013-07-11 03:43:00,68.9,66.8,29.83,West,268,0.0,2.0,93,0.00,,---,0.00,VWS V14.01,2013-07-11 07:43:00,
2013-07-11 03:44:00,68.9,66.8,29.83,West,268,0.0,2.0,93,0.00,,---,0.00,VWS V14.01,2013-07-11 07:44:00,
2013-07-11 03:45:00,68.9,66.8,29.83,West,268,0.0,2.0,93,0.00,,---,0.00,VWS V14.01,2013-07-11 07:45:00,
2013-07-11 03:47:00,68.9,66.8,29.83,West,268,0.0,2.0,93,0.00,,---,0.00,VWS V14.01,2013-07-11 07:47:00,
2013-07-11 03:48:00,68.9,66.8,29.82,West,268,0.0,2.0,93,0.00,,---,0.00,VWS V14.01,2013-07-11 07:48:00,
2013-07-11 03:49:00,68.9,66.8,29.82,West,268,0.0,2.0,93,0.00,,---,0.00,VWS V14.01,2013-07-11 07:49:00,
2013-07-11 03:50:00,68.9,66.8,29.83,West,268,0.0,2.0,93,0.00,,---,0.00,VWS V14.01,2013-07-11 07:50:00,
2013-07-11 03:52:00,68.9,66.8,29.83,West,268,0.0,2.0,93,0.00,,---,0.00,VWS V14.01,2013-07-11 07:52:00,
2013-07-11 03:53:00,68.9,66.8,29.83,West,268,0.0,2.0,93,0.00,,---,0.00,VWS V14.01,2013-07-11 07:53:00,
2013-07-11 03:54:00,68.9,66.8,29.83,West,268,0.0,2.0,93,0.00,,---,0.00,VWS V14.01,2013-07-11 07:54:00,
2013-07-11 03:55:00,68.9,66.8,29.83,West,268,0.0,2.0,93,0.00,,---,0.00,VWS V14.01,2013-07-11 07:55:00,
2013-07-11 03:57:00,68.9,66.8,29.83,West,268,0.0,2.0,93,0.00,,---,0.00,VWS V14.01,2013-07-11 07:57:00,
2013-07-11 03:58:00,68.9,66.8,29.83,West,268,0.0,2.0,93,0.00,,---,0.00,VWS V14.01,2013-07-11 07:58:00,
2013-07-11 03:59:00,68.9,66.8,29.82,West,268,0.0,2.0,93,0.00,,---,0.00,VWS V14.01,2013-07-11 07:59:00,
2013-07-11 04:00:00,68.9,66.8,29.82,West,268,0.0,2.0,93,0.00,,---,0.00,VWS V14.01,2013-07-11 08:00:00,
2013-07-11 04:03:00,68.9,66.8,29.83,West,268,0.0,2.0,93,0.00,,---,0.00,VWS V14.01,2013-07-11 08:03:00,
2013-07-11 04:04:00,68.9,66.8,29.82,West,268,0.0,2.0,93,0.00,,---,0.00,VWS V14.01,2013-07-11 08:04:00,
2013-07-11 04:05:00,68.9,66.8,29.82,West,268,0.0,0.0,93,0.00,,---,0.00,VWS V14.01,2013-07-11 08:05:00,
2013-07-11 04:08:00,68.8,66.7,29.82,West,268,0.0,1.0,93,0.00,,---,0.00,VWS V14.01,2013-07-11 08:08:00,
2013-07-11 04:09:00,68.8,66.7,29.82,West,268,0.0,1.0,93,0.00,,---,0.00,VWS V14.01,2013-07-11 08:09:00,
2013-07-11 04:10:00,68.8,66.7,29.82,West,268,0.0,1.0,93,0.00,,---,0.00,VWS V14.01,2013-07-11 08:10:00,
2013-07-11 04:11:00,68.8,66.7,29.82,West,268,0.0,1.0,93,0.00,,---,0.00,VWS V14.01,2013-07-11 08:11:00,
2013-07-11 04:14:00,68.8,66.7,29.82,West,268,0.0,1.0,93,0.00,,---,0.00,VWS V14.01,2013-07-11 08:14:00,
2013-07-11 04:15:00,68.8,66.7,29.82,West,269,0.0,1.0,93,0.00,,---,0.00,VWS V14.01,2013-07-11 08:15:00,
2013-07-11 04:19:00,68.8,66.7,29.82,West,268,0.0,1.0,93,0.00,,---,0.00,VWS V14.01,2013-07-11 08:19:00,
2013-07-11 04:20:00,68.8,66.7,29.82,West,268,0.0,1.0,93,0.00,,---,0.00,VWS V14.01,2013-07-11 08:20:00,
2013-07-11 04:21:00,68.8,66.7,29.82,West,269,0.0,1.0,93,0.00,,---,0.00,VWS V14.01,2013-07-11 08:21:00,
2013-07-11 04:24:00,68.8,66.7,29.82,West,268,0.0,1.0,93,0.00,,---,0.00,VWS V14.01,2013-07-11 08:24:00,
2013-07-11 04:25:00,68.7,66.6,29.82,West,269,0.0,1.0,93,0.00,,---,0.00,VWS V14.01,2013-07-11 08:25:00,
2013-07-11 04:26:00,68.7,66.6,29.82,West,269,0.0,1.0,93,0.00,,---,0.00,VWS V14.01,2013-07-11 08:26:00,
2013-07-11 04:27:00,68.7,66.6,29.82,West,269,0.0,1.0,93,0.00,,---,0.00,VWS V14.01,2013-07-11 08:27:00,
2013-07-11 04:29:00,68.7,66.6,29.82,West,269,0.0,1.0,93,0.00,,---,0.00,VWS V14.01,2013-07-11 08:29:00,
2013-07-11 04:30:00,68.7,66.6,29.82,West,268,0.0,1.0,93,0.00,,---,0.00,VWS V14.01,2013-07-11 08:30:00,
2013-07-11 04:32:00,68.7,66.6,29.83,West,268,0.0,1.0,93,0.00,,---,0.00,VWS V14.01,2013-07-11 08:32:00,
2013-07-11 04:34:00,68.6,66.5,29.83,West,268,0.0,0.0,93,0.00,,---,0.00,VWS V14.01,2013-07-11 08:34:00,
2013-07-11 04:35:00,68.6,66.5,29.83,West,268,0.0,0.0,93,0.00,,---,0.00,VWS V14.01,2013-07-11 08:35:00,
2013-07-11 04:37:00,68.6,66.5,29.82,West,268,0.0,0.0,93,0.00,,---,0.00,VWS V14.01,2013-07-11 08:37:00,
2013-07-11 04:40:00,68.6,66.5,29.82,West,269,0.0,0.0,93,0.00,,---,0.00,VWS V14.01,2013-07-11 08:40:00,
2013-07-11 04:41:00,68.6,66.5,29.82,West,269,0.0,0.0,93,0.00,,---,0.00,VWS V14.01,2013-07-11 08:41:00,
2013-07-11 04:42:00,68.5,66.4,29.82,West,269,0.0,0.0,93,0.00,,---,0.00,VWS V14.01,2013-07-11 08:42:00,
2013-07-11 04:43:00,68.5,66.4,29.82,West,269,1.0,2.0,93,0.00,,---,0.00,VWS V14.01,2013-07-11 08:43:00,
2013-07-11 04:45:00,68.5,66.4,29.83,West,268,0.0,2.0,93,0.00,,---,0.00,VWS V14.01,2013-07-11 08:45:00,
2013-07-11 04:46:00,68.5,66.4,29.83,West,269,0.0,2.0,93,0.00,,---,0.00,VWS V14.01,2013-07-11 08:46:00,
2013-07-11 04:47:00,68.5,66.4,29.83,West,269,0.0,2.0,93,0.00,,---,0.00,VWS V14.01,2013-07-11 08:47:00,
2013-07-11 04:48:00,68.5,66.4,29.82,West,269,0.0,2.0,93,0.00,,---,0.00,VWS V14.01,2013-07-11 08:48:00,
2013-07-11 04:50:00,68.5,66.4,29.83,West,268,0.0,2.0,93,0.00,,---,0.00,VWS V14.01,2013-07-11 08:50:00,
2013-07-11 04:51:00,68.5,66.4,29.83,West,269,0.0,2.0,93,0.00,,---,0.00,VWS V14.01,2013-07-11 08:51:00,
2013-07-11 04:52:00,68.4,66.6,29.83,West,268,0.0,2.0,94,0.00,,---,0.00,VWS V14.01,2013-07-11 08:52:00,
2013-07-11 04:53:00,68.4,66.6,29.83,West,269,0.0,2.0,94,0.00,,---,0.00,VWS V14.01,2013-07-11 08:53:00,
2013-07-11 04:56:00,68.4,66.6,29.83,WNW,300,1.0,2.0,94,0.00,,---,0.00,VWS V14.01,2013-07-11 08:56:00,
2013-07-11 04:58:00,68.3,66.5,29.83,WNW,300,0.0,2.0,94,0.00,,---,0.00,VWS V14.01,2013-07-11 08:58:00,
2013-07-11 04:59:00,68.3,66.5,29.83,WNW,300,0.0,2.0,94,0.00,,---,0.00,VWS V14.01,2013-07-11 08:59:00,
2013-07-11 05:01:00,68.3,66.5,29.83,WNW,300,0.0,3.0,94,0.00,,---,0.00,VWS V14.01,2013-07-11 09:01:00,
2013-07-11 05:02:00,68.3,66.5,29.83,WNW,300,0.0,3.0,94,0.00,,---,0.00,VWS V14.01,2013-07-11 09:02:00,
2013-07-11 05:03:00,68.3,66.5,29.83,WNW,297,1.0,3.0,94,0.00,,---,0.00,VWS V14.01,2013-07-11 09:03:00,
2013-07-11 05:04:00,68.3,66.5,29.83,WNW,297,0.0,3.0,94,0.00,,---,0.00,VWS V14.01,2013-07-11 09:04:00,
2013-07-11 05:06:00,68.2,66.4,29.84,WNW,290,0.0,3.0,94,0.00,,---,0.00,VWS V14.01,2013-07-11 09:06:00,
2013-07-11 05:07:00,68.2,66.4,29.83,WNW,290,0.0,3.0,94,0.00,,---,0.00,VWS V14.01,2013-07-11 09:07:00,
2013-07-11 05:08:00,68.2,66.4,29.83,WNW,290,0.0,3.0,94,0.00,,---,0.00,VWS V14.01,2013-07-11 09:08:00,
2013-07-11 05:09:00,68.2,66.4,29.84,WNW,290,0.0,3.0,94,0.00,,---,0.00,VWS V14.01,2013-07-11 09:09:00,
2013-07-11 05:11:00,68.1,66.3,29.83,NW,306,2.0,3.0,94,0.00,,---,0.00,VWS V14.01,2013-07-11 09:11:00,
2013-07-11 05:13:00,68.1,66.3,29.83,WNW,295,0.0,3.0,94,0.00,,---,0.00,VWS V14.01,2013-07-11 09:13:00,
2013-07-11 05:14:00,68.1,66.3,29.84,WNW,295,0.0,3.0,94,0.00,,---,0.00,VWS V14.01,2013-07-11 09:14:00,
2013-07-11 05:17:00,68.1,66.3,29.83,WNW,288,2.0,3.0,94,0.00,,---,0.00,VWS V14.01,2013-07-11 09:17:00,
2013-07-11 05:18:00,68.1,66.3,29.83,WNW,288,0.0,3.0,94,0.00,,---,0.00,VWS V14.01,2013-07-11 09:18:00,
2013-07-11 05:19:00,68.0,66.2,29.83,WNW,288,0.0,3.0,94,0.00,,---,0.00,VWS V14.01,2013-07-11 09:19:00,
2013-07-11 05:22:00,68.0,66.2,29.83,WNW,289,0.0,3.0,94,0.00,,---,0.00,VWS V14.01,2013-07-11 09:22:00,
2013-07-11 05:23:00,68.0,66.2,29.83,WNW,289,2.0,3.0,94,0.00,,---,0.00,VWS V14.01,2013-07-11 09:23:00,
2013-07-11 05:24:00,68.0,66.2,29.83,WNW,289,1.0,3.0,94,0.00,,---,0.00,VWS V14.01,2013-07-11 09:24:00,
2013-07-11 05:25:00,68.0,66.2,29.83,WNW,288,1.0,3.0,94,0.00,,---,0.00,VWS V14.01,2013-07-11 09:25:00,
2013-07-11 05:27:00,68.0,66.2,29.83,WNW,289,0.0,3.0,94,0.00,,---,0.00,VWS V14.01,2013-07-11 09:27:00,
2013-07-11 05:28:00,68.0,66.2,29.83,WNW,289,2.0,3.0,94,0.00,,---,0.00,VWS V14.01,2013-07-11 09:28:00,
2013-07-11 05:29:00,68.0,66.2,29.83,WNW,289,0.0,3.0,94,0.00,,---,0.00,VWS V14.01,2013-07-11 09:29:00,
2013-07-11 05:31:00,68.0,66.2,29.83,WNW,289,0.0,3.0,94,0.00,,---,0.00,VWS V14.01,2013-07-11 09:31:00,
2013-07-11 05:32:00,68.0,66.2,29.83,WNW,289,0.0,3.0,94,0.00,,---,0.00,VWS V14.01,2013-07-11 09:32:00,
2013-07-11 05:33:00,68.0,66.5,29.83,WNW,289,0.0,3.0,95,0.00,,---,0.00,VWS V14.01,2013-07-11 09:33:00,
2013-07-11 05:35:00,67.9,66.1,29.83,WNW,302,0.0,2.0,94,0.00,,---,0.00,VWS V14.01,2013-07-11 09:35:00,
2013-07-11 05:36:00,67.9,66.1,29.83,WNW,292,0.0,2.0,94,0.00,,---,0.00,VWS V14.01,2013-07-11 09:36:00,
2013-07-11 05:37:00,67.9,66.1,29.83,WNW,290,0.0,2.0,94,0.00,,---,0.00,VWS V14.01,2013-07-11 09:37:00,
2013-07-11 05:38:00,67.9,66.1,29.83,West,261,1.0,2.0,94,0.00,,---,0.00,VWS V14.01,2013-07-11 09:38:00,
2013-07-11 05:40:00,68.0,66.2,29.83,WNW,303,2.0,2.0,94,0.00,,---,0.00,VWS V14.01,2013-07-11 09:40:00,
2013-07-11 05:41:00,68.0,66.2,29.83,WNW,300,0.0,2.0,94,0.00,,---,0.00,VWS V14.01,2013-07-11 09:41:00,
2013-07-11 05:42:00,68.0,66.2,29.83,WNW,300,1.0,2.0,94,0.00,,---,0.00,VWS V14.01,2013-07-11 09:42:00,
2013-07-11 05:44:00,68.0,66.5,29.83,WNW,302,2.0,2.0,95,0.00,,---,0.00,VWS V14.01,2013-07-11 09:44:00,
2013-07-11 05:46:00,68.1,66.3,29.83,WNW,291,0.0,3.0,94,0.00,,---,0.00,VWS V14.01,2013-07-11 09:46:00,
2013-07-11 05:47:00,68.1,66.3,29.83,WNW,287,1.0,3.0,94,0.00,,---,0.00,VWS V14.01,2013-07-11 09:47:00,
2013-07-11 05:48:00,68.1,66.0,29.84,West,267,0.0,3.0,93,0.00,,---,0.00,VWS V14.01,2013-07-11 09:48:00,
2013-07-11 05:49:00,68.1,66.0,29.84,West,267,2.0,3.0,93,0.00,,---,0.00,VWS V14.01,2013-07-11 09:49:00,
2013-07-11 05:51:00,68.2,66.1,29.84,West,267,0.0,3.0,93,0.00,,---,0.00,VWS V14.01,2013-07-11 09:51:00,
2013-07-11 05:52:00,68.2,66.1,29.84,West,267,0.0,3.0,93,0.00,,---,0.00,VWS V14.01,2013-07-11 09:52:00,
2013-07-11 05:53:00,68.2,66.1,29.84,West,267,0.0,3.0,93,0.00,,---,0.00,VWS V14.01,2013-07-11 09:53:00,
2013-07-11 05:54:00,68.3,66.2,29.84,West,267,0.0,3.0,93,0.00,,---,0.00,VWS V14.01,2013-07-11 09:54:00,
2013-07-11 05:56:00,68.3,66.2,29.84,West,267,0.0,3.0,93,0.00,,---,0.00,VWS V14.01,2013-07-11 09:56:00,
2013-07-11 05:57:00,68.3,66.2,29.84,West,268,0.0,3.0,93,0.00,,---,0.00,VWS V14.01,2013-07-11 09:57:00,
2013-07-11 05:58:00,68.3,66.2,29.84,West,271,0.0,3.0,93,0.00,,---,0.00,VWS V14.01,2013-07-11 09:58:00,
2013-07-11 05:59:00,68.3,66.2,29.84,West,268,2.0,3.0,93,0.00,,---,0.00,VWS V14.01,2013-07-11 09:59:00,
2013-07-11 06:01:00,68.2,66.1,29.84,West,281,0.0,3.0,93,0.00,,---,0.00,VWS V14.01,2013-07-11 10:01:00,
2013-07-11 06:02:00,68.2,66.1,29.84,West,281,2.0,3.0,93,0.00,,---,0.00,VWS V14.01,2013-07-11 10:02:00,
2013-07-11 06:03:00,68.2,66.1,29.84,WNW,286,1.0,3.0,93,0.00,,---,0.00,VWS V14.01,2013-07-11 10:03:00,
2013-07-11 06:04:00,68.2,66.1,29.84,WNW,286,0.0,3.0,93,0.00,,---,0.00,VWS V14.01,2013-07-11 10:04:00,
2013-07-11 06:07:00,68.2,66.1,29.84,WNW,301,0.0,3.0,93,0.00,,---,0.00,VWS V14.01,2013-07-11 10:07:00,
2013-07-11 06:08:00,68.3,66.2,29.85,WNW,301,0.0,3.0,93,0.00,,---,0.00,VWS V14.01,2013-07-11 10:08:00,
2013-07-11 06:09:00,68.2,66.1,29.84,WNW,300,0.0,3.0,93,0.00,,---,0.00,VWS V14.01,2013-07-11 10:09:00,
2013-07-11 06:11:00,68.2,66.1,29.85,WNW,301,0.0,3.0,93,0.00,,---,0.00,VWS V14.01,2013-07-11 10:11:00,
2013-07-11 06:12:00,68.2,66.1,29.85,West,276,0.0,3.0,93,0.00,,---,0.00,VWS V14.01,2013-07-11 10:12:00,
2013-07-11 06:13:00,68.2,66.1,29.84,WNW,288,0.0,3.0,93,0.00,,---,0.00,VWS V14.01,2013-07-11 10:13:00,
2013-07-11 06:14:00,68.2,66.1,29.85,WNW,289,2.0,4.0,93,0.00,,---,0.00,VWS V14.01,2013-07-11 10:14:00,
2013-07-11 06:17:00,68.2,65.8,29.85,West,268,0.0,4.0,92,0.00,,---,0.00,VWS V14.01,2013-07-11 10:17:00,
2013-07-11 06:18:00,68.2,65.8,29.85,WNW,286,0.0,4.0,92,0.00,,---,0.00,VWS V14.01,2013-07-11 10:18:00,
2013-07-11 06:20:00,68.2,66.1,29.85,WNW,301,0.0,4.0,93,0.00,,---,0.00,VWS V14.01,2013-07-11 10:20:00,
2013-07-11 06:22:00,68.2,66.1,29.85,NW,321,0.0,4.0,93,0.00,,---,0.00,VWS V14.01,2013-07-11 10:22:00,
2013-07-11 06:23:00,68.2,66.1,29.85,NW,321,0.0,4.0,93,0.00,,---,0.00,VWS V14.01,2013-07-11 10:23:00,
2013-07-11 06:25:00,68.1,66.0,29.85,NW,322,0.0,4.0,93,0.00,,---,0.00,VWS V14.01,2013-07-11 10:25:00,
2013-07-11 06:27:00,68.1,66.0,29.84,West,281,0.0,4.0,93,0.00,,---,0.00,VWS V14.01,2013-07-11 10:27:00,
2013-07-11 06:28:00,68.1,66.0,29.85,West,279,0.0,4.0,93,0.00,,---,0.00,VWS V14.01,2013-07-11 10:28:00,
2013-07-11 06:29:00,68.1,66.0,29.85,West,279,0.0,4.0,93,0.00,,---,0.00,VWS V14.01,2013-07-11 10:29:00,
2013-07-11 06:30:00,68.0,65.9,29.85,WNW,292,1.0,4.0,93,0.00,,---,0.00,VWS V14.01,2013-07-11 10:30:00,
2013-07-11 06:32:00,68.0,65.9,29.85,NW,319,0.0,4.0,93,0.00,,---,0.00,VWS V14.01,2013-07-11 10:32:00,
2013-07-11 06:33:00,68.0,65.9,29.85,NW,319,0.0,4.0,93,0.00,,---,0.00,VWS V14.01,2013-07-11 10:33:00,
2013-07-11 06:34:00,68.0,65.9,29.85,WNW,296,4.0,9.0,93,0.00,,---,0.00,VWS V14.01,2013-07-11 10:34:00,
2013-07-11 06:35:00,68.1,66.0,29.85,West,280,1.0,5.0,93,0.00,,---,0.00,VWS V14.01,2013-07-11 10:35:00,
2013-07-11 06:37:00,68.0,65.9,29.85,SW,236,0.0,5.0,93,0.00,,---,0.00,VWS V14.01,2013-07-11 10:37:00,
2013-07-11 06:38:00,68.0,65.9,29.85,SW,236,0.0,5.0,93,0.00,,---,0.00,VWS V14.01,2013-07-11 10:38:00,
2013-07-11 06:39:00,68.0,65.9,29.85,West,259,0.0,5.0,93,0.00,,---,0.00,VWS V14.01,2013-07-11 10:39:00,
2013-07-11 06:40:00,68.0,65.9,29.85,West,259,2.0,5.0,93,0.00,,---,0.00,VWS V14.01,2013-07-11 10:40:00,
2013-07-11 06:41:00,68.0,65.9,29.85,West,263,0.0,5.0,93,0.00,,---,0.00,VWS V14.01,2013-07-11 10:41:00,
2013-07-11 06:43:00,68.0,65.9,29.85,West,263,0.0,5.0,93,0.00,,---,0.00,VWS V14.01,2013-07-11 10:43:00,
2013-07-11 06:45:00,68.0,65.9,29.85,WNW,284,0.0,5.0,93,0.00,,---,0.00,VWS V14.01,2013-07-11 10:45:00,
2013-07-11 06:47:00,68.0,65.9,29.85,WNW,284,0.0,5.0,93,0.00,,---,0.00,VWS V14.01,2013-07-11 10:47:00,
2013-07-11 06:48:00,68.0,65.9,29.85,WNW,284,0.0,5.0,93,0.00,,---,0.00,VWS V14.01,2013-07-11 10:48:00,
2013-07-11 06:49:00,68.0,65.9,29.85,WNW,285,0.0,5.0,93,0.00,,---,0.00,VWS V14.01,2013-07-11 10:49:00,
2013-07-11 06:50:00,68.0,65.9,29.86,WNW,288,0.0,5.0,93,0.00,,---,0.00,VWS V14.01,2013-07-11 10:50:00,
2013-07-11 06:52:00,68.0,65.9,29.86,WNW,288,0.0,5.0,93,0.00,,---,0.00,VWS V14.01,2013-07-11 10:52:00,
2013-07-11 06:53:00,68.0,65.9,29.86,WNW,286,0.0,5.0,93,0.00,,---,0.00,VWS V14.01,2013-07-11 10:53:00,
2013-07-11 06:55:00,68.0,65.9,29.86,WNW,302,6.0,6.0,93,0.00,,---,0.00,VWS V14.01,2013-07-11 10:55:00,
2013-07-11 06:57:00,68.0,65.9,29.86,WNW,287,2.0,6.0,93,0.00,,---,0.00,VWS V14.01,2013-07-11 10:57:00,
2013-07-11 06:59:00,68.0,65.9,29.86,West,274,0.0,6.0,93,0.00,,---,0.00,VWS V14.01,2013-07-11 10:59:00,
2013-07-11 07:01:00,67.9,65.8,29.86,WNW,282,1.0,6.0,93,0.00,,---,0.00,VWS V14.01,2013-07-11 11:01:00,
2013-07-11 07:02:00,67.9,65.8,29.86,WSW,246,0.0,6.0,93,0.00,,---,0.00,VWS V14.01,2013-07-11 11:02:00,
2013-07-11 07:04:00,67.9,65.8,29.86,NNW,337,0.0,6.0,93,0.00,,---,0.00,VWS V14.01,2013-07-11 11:04:00,
2013-07-11 07:06:00,67.9,65.8,29.87,NW,311,0.0,0.0,93,0.00,,---,0.00,VWS V14.01,2013-07-11 11:06:00,
2013-07-11 07:07:00,67.9,66.1,29.87,West,274,1.0,3.0,94,0.00,,---,0.00,VWS V14.01,2013-07-11 11:07:00,
2013-07-11 07:09:00,67.9,65.8,29.87,NW,308,0.0,3.0,93,0.00,,---,0.00,VWS V14.01,2013-07-11 11:09:00,
2013-07-11 07:11:00,67.8,66.0,29.87,NNW,327,2.0,3.0,94,0.00,,---,0.00,VWS V14.01,2013-07-11 11:11:00,
2013-07-11 07:12:00,67.8,66.0,29.87,WNW,292,0.0,3.0,94,0.00,,---,0.00,VWS V14.01,2013-07-11 11:12:00,
2013-07-11 07:13:00,67.8,66.0,29.87,West,279,0.0,3.0,94,0.00,,---,0.00,VWS V14.01,2013-07-11 11:13:00,
2013-07-11 07:14:00,67.8,66.0,29.87,West,279,0.0,3.0,94,0.00,,---,0.00,VWS V14.01,2013-07-11 11:14:00,
2013-07-11 07:16:00,67.7,65.9,29.87,NW,325,0.0,3.0,94,0.00,,---,0.00,VWS V14.01,2013-07-11 11:16:00,
2013-07-11 07:18:00,67.7,65.9,29.87,NW,305,0.0,3.0,94,0.00,,---,0.00,VWS V14.01,2013-07-11 11:18:00,
2013-07-11 07:19:00,67.7,65.9,29.87,NW,304,2.0,3.0,94,0.00,,---,0.00,VWS V14.01,2013-07-11 11:19:00,
2013-07-11 07:21:00,67.7,65.9,29.87,WNW,288,1.0,3.0,94,0.00,,---,0.00,VWS V14.01,2013-07-11 11:21:00,
2013-07-11 07:22:00,67.7,65.9,29.87,WNW,286,1.0,3.0,94,0.00,,---,0.00,VWS V14.01,2013-07-11 11:22:00,
2013-07-11 07:23:00,67.7,65.9,29.87,WNW,286,0.0,3.0,94,0.00,,---,0.00,VWS V14.01,2013-07-11 11:23:00,
2013-07-11 07:24:00,67.7,65.9,29.87,WNW,286,0.0,3.0,94,0.00,,---,0.00,VWS V14.01,2013-07-11 11:24:00,
2013-07-11 07:27:00,67.7,66.2,29.87,WNW,287,0.0,3.0,95,0.00,,---,0.00,VWS V14.01,2013-07-11 11:27:00,
2013-07-11 07:28:00,67.7,66.2,29.87,WNW,287,0.0,3.0,95,0.00,,---,0.00,VWS V14.01,2013-07-11 11:28:00,
2013-07-11 07:29:00,67.7,66.2,29.87,WNW,287,0.0,3.0,95,0.00,,---,0.00,VWS V14.01,2013-07-11 11:29:00,
2013-07-11 07:32:00,67.7,66.2,29.87,WNW,293,0.0,3.0,95,0.00,,---,0.00,VWS V14.01,2013-07-11 11:32:00,
2013-07-11 07:33:00,67.7,66.2,29.87,WNW,294,0.0,3.0,95,0.00,,---,0.00,VWS V14.01,2013-07-11 11:33:00,
2013-07-11 07:34:00,67.7,66.2,29.87,WNW,300,0.0,3.0,95,0.00,,---,0.00,VWS V14.01,2013-07-11 11:34:00,
2013-07-11 07:37:00,67.7,66.2,29.87,WNW,291,5.0,5.0,95,0.00,,---,0.00,VWS V14.01,2013-07-11 11:37:00,
2013-07-11 07:38:00,67.7,66.2,29.87,WNW,302,0.0,5.0,95,0.00,,---,0.00,VWS V14.01,2013-07-11 11:38:00,
2013-07-11 07:39:00,67.7,66.2,29.88,WNW,300,0.0,5.0,95,0.00,,---,0.00,VWS V14.01,2013-07-11 11:39:00,
2013-07-11 07:40:00,67.7,66.2,29.88,WNW,303,0.0,5.0,95,0.00,,---,0.00,VWS V14.01,2013-07-11 11:40:00,
2013-07-11 07:42:00,67.8,66.3,29.88,NNW,346,0.0,5.0,95,0.00,,---,0.00,VWS V14.01,2013-07-11 11:42:00,
2013-07-11 07:43:00,67.8,66.3,29.88,West,273,0.0,5.0,95,0.00,,---,0.00,VWS V14.01,2013-07-11 11:43:00,
2013-07-11 07:44:00,67.8,66.3,29.88,West,273,0.0,5.0,95,0.00,,---,0.00,VWS V14.01,2013-07-11 11:44:00,
2013-07-11 07:45:00,67.9,66.4,29.88,West,273,0.0,5.0,95,0.00,,---,0.00,VWS V14.01,2013-07-11 11:45:00,
2013-07-11 07:48:00,67.9,66.4,29.88,WNW,296,0.0,5.0,95,0.00,,---,0.00,VWS V14.01,2013-07-11 11:48:00,
2013-07-11 07:49:00,68.0,66.5,29.88,WNW,296,0.0,5.0,95,0.00,,---,0.00,VWS V14.01,2013-07-11 11:49:00,
2013-07-11 07:50:00,68.0,66.2,29.88,WNW,296,0.0,5.0,94,0.00,,---,0.00,VWS V14.01,2013-07-11 11:50:00,
2013-07-11 07:53:00,68.0,66.2,29.88,West,281,0.0,5.0,94,0.00,,---,0.00,VWS V14.01,2013-07-11 11:53:00,
2013-07-11 07:54:00,68.0,66.2,29.88,West,281,0.0,5.0,94,0.00,,---,0.00,VWS V14.01,2013-07-11 11:54:00,
2013-07-11 07:55:00,68.0,66.2,29.88,NW,325,1.0,5.0,94,0.00,,---,0.00,VWS V14.01,2013-07-11 11:55:00,
2013-07-11 07:56:00,68.0,66.2,29.88,NNW,336,2.0,5.0,94,0.00,,---,0.00,VWS V14.01,2013-07-11 11:56:00,
2013-07-11 07:58:00,68.0,66.2,29.88,WNW,285,0.0,5.0,94,0.00,,---,0.00,VWS V14.01,2013-07-11 11:58:00,
2013-07-11 07:59:00,68.0,66.2,29.88,WNW,283,2.0,5.0,94,0.00,,---,0.00,VWS V14.01,2013-07-11 11:59:00,
2013-07-11 08:01:00,68.0,66.2,29.88,NW,319,0.0,5.0,94,0.00,,---,0.00,VWS V14.01,2013-07-11 12:01:00,
2013-07-11 08:03:00,68.1,66.3,29.88,WSW,257,3.0,5.0,94,0.00,,---,0.00,VWS V14.01,2013-07-11 12:03:00,
2013-07-11 08:04:00,68.1,66.3,29.88,WNW,283,5.0,5.0,94,0.00,,---,0.00,VWS V14.01,2013-07-11 12:04:00,
2013-07-11 08:06:00,68.1,66.3,29.88,West,281,0.0,1.0,94,0.00,,---,0.00,VWS V14.01,2013-07-11 12:06:00,
2013-07-11 08:09:00,68.2,66.4,29.88,West,265,0.0,3.0,94,0.00,,---,0.00,VWS V14.01,2013-07-11 12:09:00,
2013-07-11 08:10:00,68.3,66.5,29.88,WNW,284,0.0,3.0,94,0.00,,---,0.00,VWS V14.01,2013-07-11 12:10:00,
2013-07-11 08:12:00,68.4,66.6,29.88,WNW,288,0.0,3.0,94,0.00,,---,0.00,VWS V14.01,2013-07-11 12:12:00,
2013-07-11 08:13:00,68.4,66.6,29.88,WNW,284,0.0,3.0,94,0.00,,---,0.00,VWS V14.01,2013-07-11 12:13:00,
2013-07-11 08:14:00,68.5,66.7,29.88,WNW,285,0.0,3.0,94,0.00,,---,0.00,VWS V14.01,2013-07-11 12:14:00,
2013-07-11 08:15:00,68.5,66.7,29.88,NNW,336,6.0,6.0,94,0.00,,---,0.00,VWS V14.01,2013-07-11 12:15:00,
2013-07-11 08:17:00,68.5,66.7,29.88,WNW,287,0.0,6.0,94,0.00,,---,0.00,VWS V14.01,2013-07-11 12:17:00,
2013-07-11 08:18:00,68.5,66.7,29.88,WNW,287,0.0,6.0,94,0.00,,---,0.00,VWS V14.01,2013-07-11 12:18:00,
2013-07-11 08:19:00,68.6,66.8,29.88,NNW,342,1.0,6.0,94,0.00,,---,0.00,VWS V14.01,2013-07-11 12:19:00,
2013-07-11 08:20:00,68.6,66.8,29.88,NNW,343,0.0,6.0,94,0.00,,---,0.00,VWS V14.01,2013-07-11 12:20:00,
2013-07-11 08:22:00,69.0,67.2,29.88,NNW,342,0.0,6.0,94,0.00,,---,0.00,VWS V14.01,2013-07-11 12:22:00,
2013-07-11 08:24:00,69.4,67.3,29.89,North,9,0.0,6.0,93,0.00,,---,0.00,VWS V14.01,2013-07-11 12:24:00,
2013-07-11 08:25:00,69.6,67.5,29.88,NW,307,0.0,6.0,93,0.00,,---,0.00,VWS V14.01,2013-07-11 12:25:00,
2013-07-11 08:26:00,69.8,67.4,29.89,North,350,0.0,6.0,92,0.00,,---,0.00,VWS V14.01,2013-07-11 12:26:00,
2013-07-11 08:28:00,70.1,67.7,29.88,SW,222,0.0,6.0,92,0.00,,---,0.00,VWS V14.01,2013-07-11 12:28:00,
2013-07-11 08:29:00,70.2,67.4,29.89,West,276,2.0,6.0,91,0.00,,---,0.00,VWS V14.01,2013-07-11 12:29:00,
2013-07-11 08:30:00,70.2,67.1,29.89,WNW,286,1.0,6.0,90,0.00,,---,0.00,VWS V14.01,2013-07-11 12:30:00,
2013-07-11 08:32:00,70.3,67.2,29.89,NW,317,0.0,6.0,90,0.00,,---,0.00,VWS V14.01,2013-07-11 12:32:00,
2013-07-11 08:33:00,70.4,67.3,29.89,NNW,327,1.0,6.0,90,0.00,,---,0.00,VWS V14.01,2013-07-11 12:33:00,
2013-07-11 08:34:00,70.6,67.5,29.89,North,11,5.0,6.0,90,0.00,,---,0.00,VWS V14.01,2013-07-11 12:34:00,
2013-07-11 08:35:00,70.6,67.5,29.89,North,5,0.0,5.0,90,0.00,,---,0.00,VWS V14.01,2013-07-11 12:35:00,
2013-07-11 08:36:00,70.7,67.3,29.89,NNW,337,0.0,5.0,89,0.00,,---,0.00,VWS V14.01,2013-07-11 12:36:00,
2013-07-11 08:37:00,70.9,67.8,29.89,SSW,202,0.0,5.0,90,0.00,,---,0.00,VWS V14.01,2013-07-11 12:37:00,
2013-07-11 08:38:00,71.1,68.0,29.89,WNW,292,2.0,7.0,90,0.00,,---,0.00,VWS V14.01,2013-07-11 12:38:00,
2013-07-11 08:40:00,71.2,67.8,29.89,NW,319,4.0,7.0,89,0.00,,---,0.00,VWS V14.01,2013-07-11 12:40:00,
2013-07-11 08:42:00,71.3,67.9,29.89,WNW,301,0.0,7.0,89,0.00,,---,0.00,VWS V14.01,2013-07-11 12:42:00,
2013-07-11 08:44:00,71.3,67.6,29.89,West,281,0.0,7.0,88,0.00,,---,0.00,VWS V14.01,2013-07-11 12:44:00,
2013-07-11 08:45:00,71.3,67.6,29.89,North,355,2.0,7.0,88,0.00,,---,0.00,VWS V14.01,2013-07-11 12:45:00,
2013-07-11 08:46:00,71.3,67.6,29.89,West,281,0.0,7.0,88,0.00,,---,0.00,VWS V14.01,2013-07-11 12:46:00,
2013-07-11 08:48:00,71.2,67.5,29.89,WNW,292,0.0,7.0,88,0.00,,---,0.00,VWS V14.01,2013-07-11 12:48:00,
2013-07-11 08:49:00,71.1,67.4,29.89,NW,326,0.0,7.0,88,0.00,,---,0.00,VWS V14.01,2013-07-11 12:49:00,
2013-07-11 08:50:00,71.0,66.9,29.89,NNW,346,3.0,7.0,87,0.00,,---,0.00,VWS V14.01,2013-07-11 12:50:00,
2013-07-11 08:52:00,70.8,67.1,29.89,WNW,292,0.0,7.0,88,0.00,,---,0.00,VWS V14.01,2013-07-11 12:52:00,
2013-07-11 08:54:00,70.5,66.8,29.89,West,264,0.0,7.0,88,0.00,,---,0.00,VWS V14.01,2013-07-11 12:54:00,
2013-07-11 08:55:00,70.4,66.7,29.89,West,265,0.0,7.0,88,0.00,,---,0.00,VWS V14.01,2013-07-11 12:55:00,
2013-07-11 08:57:00,70.3,66.9,29.89,NW,315,0.0,7.0,89,0.00,,---,0.00,VWS V14.01,2013-07-11 12:57:00,
2013-07-11 08:59:00,70.3,66.9,29.89,NW,325,0.0,7.0,89,0.00,,---,0.00,VWS V14.01,2013-07-11 12:59:00,
2013-07-11 09:00:00,70.4,67.0,29.89,NW,322,0.0,7.0,89,0.00,,---,0.00,VWS V14.01,2013-07-11 13:00:00,
2013-07-11 09:01:00,70.4,67.3,29.89,West,281,0.0,7.0,90,0.00,,---,0.00,VWS V14.01,2013-07-11 13:01:00,
2013-07-11 09:03:00,70.5,67.1,29.89,NNW,334,0.0,7.0,89,0.00,,---,0.00,VWS V14.01,2013-07-11 13:03:00,
2013-07-11 09:05:00,70.4,67.0,29.89,WNW,290,0.0,0.0,89,0.00,,---,0.00,VWS V14.01,2013-07-11 13:05:00,
2013-07-11 09:07:00,70.4,66.7,29.90,West,281,0.0,3.0,88,0.00,,---,0.00,VWS V14.01,2013-07-11 13:07:00,
2013-07-11 09:08:00,70.3,66.6,29.90,NW,315,2.0,3.0,88,0.00,,---,0.00,VWS V14.01,2013-07-11 13:08:00,
2013-07-11 09:10:00,70.3,66.9,29.89,North,349,2.0,5.0,89,0.00,,---,0.00,VWS V14.01,2013-07-11 13:10:00,
2013-07-11 09:11:00,70.2,66.5,29.89,WNW,298,0.0,5.0,88,0.00,,---,0.00,VWS V14.01,2013-07-11 13:11:00,
2013-07-11 09:12:00,70.2,66.5,29.90,NW,316,0.0,6.0,88,0.00,,---,0.00,VWS V14.01,2013-07-11 13:12:00,
2013-07-11 09:13:00,70.2,66.5,29.89,NW,319,0.0,6.0,88,0.00,,---,0.00,VWS V14.01,2013-07-11 13:13:00,
2013-07-11 09:15:00,70.2,66.5,29.89,West,280,0.0,6.0,88,0.00,,---,0.00,VWS V14.01,2013-07-11 13:15:00,
2013-07-11 09:16:00,70.2,66.5,29.89,NW,304,3.0,6.0,88,0.00,,---,0.00,VWS V14.01,2013-07-11 13:16:00,
2013-07-11 09:18:00,70.2,66.2,29.89,North,360,0.0,6.0,87,0.00,,---,0.00,VWS V14.01,2013-07-11 13:18:00,
2013-07-11 09:19:00,70.2,66.5,29.89,NW,306,0.0,6.0,88,0.00,,---,0.00,VWS V14.01,2013-07-11 13:19:00,
2013-07-11 09:21:00,70.1,66.4,29.89,NW,318,0.0,6.0,88,0.00,,---,0.00,VWS V14.01,2013-07-11 13:21:00,
2013-07-11 09:22:00,70.2,66.5,29.89,NNW,340,5.0,6.0,88,0.00,,---,0.00,VWS V14.01,2013-07-11 13:22:00,
2013-07-11 09:23:00,70.3,66.6,29.89,NNW,346,0.0,6.0,88,0.00,,---,0.00,VWS V14.01,2013-07-11 13:23:00,
2013-07-11 09:24:00,70.5,66.8,29.89,NNW,346,0.0,6.0,88,0.00,,---,0.00,VWS V14.01,2013-07-11 13:24:00,
2013-07-11 09:27:00,71.6,67.5,29.89,North,355,0.0,6.0,87,0.00,,---,0.00,VWS V14.01,2013-07-11 13:27:00,
2013-07-11 09:28:00,71.8,67.7,29.89,NNW,340,0.0,6.0,87,0.00,,---,0.00,VWS V14.01,2013-07-11 13:28:00,
2013-07-11 09:29:00,72.3,67.9,29.89,WNW,296,2.0,6.0,86,0.00,,---,0.00,VWS V14.01,2013-07-11 13:29:00,
2013-07-11 09:32:00,72.7,67.9,29.89,NW,310,0.0,6.0,85,0.00,,---,0.00,VWS V14.01,2013-07-11 13:32:00,
2013-07-11 09:33:00,72.6,67.5,29.89,NW,313,0.0,6.0,84,0.00,,---,0.00,VWS V14.01,2013-07-11 13:33:00,
2013-07-11 09:35:00,72.6,67.8,29.89,NNE,32,0.0,0.0,85,0.00,,---,0.00,VWS V14.01,2013-07-11 13:35:00,
2013-07-11 09:38:00,73.0,68.2,29.89,NW,325,5.0,6.0,85,0.00,,---,0.00,VWS V14.01,2013-07-11 13:38:00,
2013-07-11 09:39:00,73.0,67.9,29.89,NNW,348,2.0,10.0,84,0.00,,---,0.00,VWS V14.01,2013-07-11 13:39:00,
2013-07-11 09:41:00,73.0,67.9,29.89,North,349,0.0,10.0,84,0.00,,---,0.00,VWS V14.01,2013-07-11 13:41:00,
2013-07-11 09:43:00,73.1,67.6,29.89,North,360,1.0,10.0,83,0.00,,---,0.00,VWS V14.01,2013-07-11 13:43:00,
2013-07-11 09:44:00,73.1,67.6,29.89,WSW,248,1.0,10.0,83,0.00,,---,0.00,VWS V14.01,2013-07-11 13:44:00,
2013-07-11 09:46:00,73.1,68.0,29.89,West,281,0.0,10.0,84,0.00,,---,0.00,VWS V14.01,2013-07-11 13:46:00,
2013-07-11 09:49:00,72.9,67.4,29.89,West,281,0.0,10.0,83,0.00,,---,0.00,VWS V14.01,2013-07-11 13:49:00,
2013-07-11 09:50:00,72.8,67.3,29.89,West,281,0.0,10.0,83,0.00,,---,0.00,VWS V14.01,2013-07-11 13:50:00,
2013-07-11 09:51:00,72.4,66.9,29.89,North,350,0.0,10.0,83,0.00,,---,0.00,VWS V14.01,2013-07-11 13:51:00,
2013-07-11 09:54:00,72.0,67.2,29.89,West,274,0.0,10.0,85,0.00,,---,0.00,VWS V14.01,2013-07-11 13:54:00,
2013-07-11 09:55:00,72.0,67.2,29.90,NW,306,2.0,10.0,85,0.00,,---,0.00,VWS V14.01,2013-07-11 13:55:00,
2013-07-11 09:57:00,72.3,67.2,29.90,NW,326,4.0,10.0,84,0.00,,---,0.00,VWS V14.01,2013-07-11 13:57:00,
2013-07-11 10:00:00,72.6,67.8,29.89,WNW,294,0.0,10.0,85,0.00,,---,0.00,VWS V14.01,2013-07-11 14:00:00,
2013-07-11 10:01:00,72.8,67.7,29.89,NW,321,0.0,10.0,84,0.00,,---,0.00,VWS V14.01,2013-07-11 14:01:00,
2013-07-11 10:02:00,73.1,68.3,29.89,North,350,0.0,10.0,85,0.00,,---,0.00,VWS V14.01,2013-07-11 14:02:00,
2013-07-11 10:05:00,73.4,68.3,29.89,North,360,0.0,0.0,84,0.00,,---,0.00,VWS V14.01,2013-07-11 14:05:00,
2013-07-11 10:06:00,73.7,68.6,29.89,WNW,301,3.0,4.0,84,0.00,,---,0.00,VWS V14.01,2013-07-11 14:06:00,
2013-07-11 10:08:00,73.6,67.8,29.89,West,260,0.0,4.0,82,0.00,,---,0.00,VWS V14.01,2013-07-11 14:08:00,
2013-07-11 10:11:00,73.8,68.7,29.89,North,360,3.0,6.0,84,0.00,,---,0.00,VWS V14.01,2013-07-11 14:11:00,
2013-07-11 10:12:00,73.9,68.1,29.89,North,360,6.0,6.0,82,0.00,,---,0.00,VWS V14.01,2013-07-11 14:12:00,
2013-07-11 10:13:00,73.9,67.7,29.89,North,360,11.0,11.0,81,0.00,,---,0.00,VWS V14.01,2013-07-11 14:13:00,
2013-07-11 10:16:00,73.6,67.8,29.89,NNW,331,0.0,11.0,82,0.00,,---,0.00,VWS V14.01,2013-07-11 14:16:00,
2013-07-11 10:17:00,73.5,67.3,29.89,North,349,5.0,11.0,81,0.00,,---,0.00,VWS V14.01,2013-07-11 14:17:00,
2013-07-11 10:18:00,73.5,67.7,29.89,NNW,346,2.0,11.0,82,0.00,,---,0.00,VWS V14.01,2013-07-11 14:18:00,
2013-07-11 10:22:00,74.0,68.9,29.89,North,355,0.0,11.0,84,0.00,,---,0.00,VWS V14.01,2013-07-11 14:22:00,
2013-07-11 10:23:00,74.1,69.0,29.89,North,355,0.0,11.0,84,0.00,,---,0.00,VWS V14.01,2013-07-11 14:23:00,
2013-07-11 10:27:00,74.4,68.6,29.89,North,355,3.0,11.0,82,0.00,,---,0.00,VWS V14.01,2013-07-11 14:27:00,
2013-07-11 10:28:00,74.4,68.6,29.89,NNW,331,4.0,11.0,82,0.00,,---,0.00,VWS V14.01,2013-07-11 14:28:00,
2013-07-11 10:29:00,74.5,68.3,29.89,NNE,22,0.0,11.0,81,0.00,,---,0.00,VWS V14.01,2013-07-11 14:29:00,
2013-07-11 10:31:00,74.2,67.6,29.89,West,279,5.0,11.0,80,0.00,,---,0.00,VWS V14.01,2013-07-11 14:31:00,
2013-07-11 10:33:00,74.0,68.2,29.89,NNW,346,3.0,11.0,82,0.00,,---,0.00,VWS V14.01,2013-07-11 14:33:00,
2013-07-11 10:34:00,74.2,69.1,29.89,NE,36,4.0,11.0,84,0.00,,---,0.00,VWS V14.01,2013-07-11 14:34:00,
2013-07-11 10:36:00,74.3,68.1,29.89,NNW,331,4.0,4.0,81,0.00,,---,0.00,VWS V14.01,2013-07-11 14:36:00,
2013-07-11 10:38:00,74.3,67.7,29.89,NW,304,5.0,7.0,80,0.00,,---,0.00,VWS V14.01,2013-07-11 14:38:00,
2013-07-11 10:39:00,74.2,67.6,29.89,North,355,0.0,7.0,80,0.00,,---,0.00,VWS V14.01,2013-07-11 14:39:00,
2013-07-11 10:40:00,74.3,67.7,29.89,North,355,0.0,7.0,80,0.00,,---,0.00,VWS V14.01,2013-07-11 14:40:00,
2013-07-11 10:42:00,74.6,68.8,29.90,North,349,0.0,7.0,82,0.00,,---,0.00,VWS V14.01,2013-07-11 14:42:00,
2013-07-11 10:44:00,74.9,69.0,29.89,NNW,336,0.0,7.0,82,0.00,,---,0.00,VWS V14.01,2013-07-11 14:44:00,
2013-07-11 10:45:00,74.9,69.0,29.89,NNW,336,0.0,7.0,82,0.00,,---,0.00,VWS V14.01,2013-07-11 14:45:00,
2013-07-11 10:47:00,75.3,68.7,29.89,NNW,333,0.0,7.0,80,0.00,,---,0.00,VWS V14.01,2013-07-11 14:47:00,
2013-07-11 10:49:00,75.4,68.4,29.89,NNW,346,2.0,7.0,79,0.00,,---,0.00,VWS V14.01,2013-07-11 14:49:00,
2013-07-11 10:50:00,75.4,68.4,29.89,NNW,348,0.0,7.0,79,0.00,,---,0.00,VWS V14.01,2013-07-11 14:50:00,
2013-07-11 10:54:00,75.5,69.3,29.89,NNE,12,3.0,7.0,81,0.00,,---,0.00,VWS V14.01,2013-07-11 14:54:00,
2013-07-11 10:55:00,75.5,68.9,29.89,NNE,17,0.0,9.0,80,0.00,,---,0.00,VWS V14.01,2013-07-11 14:55:00,
2013-07-11 10:56:00,75.4,68.1,29.90,NNE,17,0.0,9.0,78,0.00,,---,0.00,VWS V14.01,2013-07-11 14:56:00,
2013-07-11 11:01:00,74.8,68.2,29.90,NNE,24,3.0,9.0,80,0.00,,---,0.00,VWS V14.01,2013-07-11 15:01:00,
2013-07-11 11:06:00,75.5,69.3,29.90,North,360,0.0,4.0,81,0.00,,---,0.00,VWS V14.01,2013-07-11 15:06:00,
2013-07-11 11:07:00,75.5,68.9,29.90,North,360,0.0,4.0,80,0.00,,---,0.00,VWS V14.01,2013-07-11 15:07:00,
2013-07-11 11:11:00,75.6,68.6,29.90,NNW,333,5.0,6.0,79,0.00,,---,0.00,VWS V14.01,2013-07-11 15:11:00,
2013-07-11 11:12:00,75.6,68.6,29.90,NNW,336,2.0,6.0,79,0.00,,---,0.00,VWS V14.01,2013-07-11 15:12:00,
2013-07-11 11:13:00,75.9,69.3,29.90,North,9,1.0,6.0,80,0.00,,---,0.00,VWS V14.01,2013-07-11 15:13:00,
2013-07-11 11:16:00,76.1,68.4,29.89,NNE,22,0.0,6.0,77,0.00,,---,0.00,VWS V14.01,2013-07-11 15:16:00,
2013-07-11 11:17:00,76.1,68.8,29.90,NNE,32,0.0,6.0,78,0.00,,---,0.00,VWS V14.01,2013-07-11 15:17:00,
2013-07-11 11:18:00,76.2,69.2,29.89,NNE,30,0.0,6.0,79,0.00,,---,0.00,VWS V14.01,2013-07-11 15:18:00,
2013-07-11 11:22:00,77.0,69.6,29.89,North,349,6.0,7.0,78,0.00,,---,0.00,VWS V14.01,2013-07-11 15:22:00,
2013-07-11 11:23:00,76.7,68.6,29.89,NW,317,2.0,7.0,76,0.00,,---,0.00,VWS V14.01,2013-07-11 15:23:00,
2013-07-11 11:27:00,76.6,69.6,29.89,NNW,342,0.0,7.0,79,0.00,,---,0.00,VWS V14.01,2013-07-11 15:27:00,
2013-07-11 11:28:00,76.6,70.0,29.89,NNW,342,1.0,7.0,80,0.00,,---,0.00,VWS V14.01,2013-07-11 15:28:00,
2013-07-11 11:29:00,76.8,69.1,29.89,NW,315,0.0,7.0,77,0.00,,---,0.00,VWS V14.01,2013-07-11 15:29:00,
2013-07-11 11:33:00,76.7,69.7,29.89,NNE,30,3.0,7.0,79,0.00,,---,0.00,VWS V14.01,2013-07-11 15:33:00,
2013-07-11 11:34:00,76.8,69.8,29.89,North,355,0.0,7.0,79,0.00,,---,0.00,VWS V14.01,2013-07-11 15:34:00,
2013-07-11 11:39:00,76.9,69.5,29.89,NNW,333,3.0,4.0,78,0.00,,---,0.00,VWS V14.01,2013-07-11 15:39:00,
2013-07-11 11:40:00,76.8,69.1,29.89,NW,315,0.0,4.0,77,0.00,,---,0.00,VWS V14.01,2013-07-11 15:40:00,
2013-07-11 11:44:00,76.8,70.2,29.89,North,351,0.0,5.0,80,0.00,,---,0.00,VWS V14.01,2013-07-11 15:44:00,
2013-07-11 11:46:00,77.1,69.3,29.89,North,350,0.0,5.0,77,0.00,,---,0.00,VWS V14.01,2013-07-11 15:46:00,
2013-07-11 11:47:00,77.1,69.3,29.89,North,349,0.0,5.0,77,0.00,,---,0.00,VWS V14.01,2013-07-11 15:47:00,
2013-07-11 11:49:00,77.1,69.7,29.89,NNE,32,0.0,5.0,78,0.00,,---,0.00,VWS V14.01,2013-07-11 15:49:00,
2013-07-11 11:51:00,77.2,69.4,29.89,North,360,2.0,9.0,77,0.00,,---,0.00,VWS V14.01,2013-07-11 15:51:00,
2013-07-11 11:53:00,77.2,69.4,29.89,NNW,328,2.0,9.0,77,0.00,,---,0.00,VWS V14.01,2013-07-11 15:53:00,
2013-07-11 11:55:00,77.2,69.8,29.89,WSW,241,3.0,9.0,78,0.00,,---,0.00,VWS V14.01,2013-07-11 15:55:00,
2013-07-11 11:56:00,77.1,69.0,29.89,WNW,292,5.0,9.0,76,0.00,,---,0.00,VWS V14.01,2013-07-11 15:56:00,
2013-07-11 11:59:00,77.1,70.1,29.90,North,9,0.0,9.0,79,0.00,,---,0.00,VWS V14.01,2013-07-11 15:59:00,
2013-07-11 12:00:00,77.3,69.2,29.89,WNW,298,1.0,9.0,76,0.00,,---,0.00,VWS V14.01,2013-07-11 16:00:00,
2013-07-11 12:01:00,77.3,69.5,29.89,NNW,344,0.0,9.0,77,0.00,,---,0.00,VWS V14.01,2013-07-11 16:01:00,
2013-07-11 12:03:00,77.4,69.2,29.89,NNW,336,3.0,9.0,76,0.00,,---,0.00,VWS V14.01,2013-07-11 16:03:00,
2013-07-11 12:05:00,77.0,69.2,29.90,NNW,330,3.0,9.0,77,0.00,,---,0.00,VWS V14.01,2013-07-11 16:05:00,
2013-07-11 12:06:00,76.9,69.5,29.90,NNW,345,0.0,9.0,78,0.00,,---,0.00,VWS V14.01,2013-07-11 16:06:00,
2013-07-11 12:08:00,76.9,69.9,29.90,NE,44,3.0,9.0,79,0.00,,---,0.00,VWS V14.01,2013-07-11 16:08:00,
2013-07-11 12:10:00,77.5,70.8,29.90,NNW,346,0.0,9.0,80,0.00,,---,0.00,VWS V14.01,2013-07-11 16:10:00,
2013-07-11 12:12:00,77.8,70.4,29.90,WNW,290,1.0,9.0,78,0.00,,---,0.00,VWS V14.01,2013-07-11 16:12:00,
2013-07-11 12:13:00,77.7,69.5,29.90,NNW,331,0.0,9.0,76,0.00,,---,0.00,VWS V14.01,2013-07-11 16:13:00,
2013-07-11 12:16:00,77.4,69.6,29.90,North,355,1.0,9.0,77,0.00,,---,0.00,VWS V14.01,2013-07-11 16:16:00,
2013-07-11 12:18:00,77.2,69.8,29.90,North,355,0.0,9.0,78,0.00,,---,0.00,VWS V14.01,2013-07-11 16:18:00,
2013-07-11 12:19:00,77.3,69.9,29.90,North,9,2.0,9.0,78,0.00,,---,0.00,VWS V14.01,2013-07-11 16:19:00,
2013-07-11 12:21:00,77.3,68.8,29.90,West,279,0.0,9.0,75,0.00,,---,0.00,VWS V14.01,2013-07-11 16:21:00,
2013-07-11 12:24:00,77.8,70.0,29.90,WNW,290,0.0,9.0,77,0.00,,---,0.00,VWS V14.01,2013-07-11 16:24:00,
2013-07-11 12:26:00,78.6,71.9,29.89,North,9,2.0,9.0,80,0.00,,---,0.00,VWS V14.01,2013-07-11 16:26:00,
2013-07-11 12:29:00,78.7,70.5,29.90,North,10,1.0,9.0,76,0.00,,---,0.00,VWS V14.01,2013-07-11 16:29:00,
2013-07-11 12:30:00,78.7,70.5,29.90,North,10,0.0,9.0,76,0.00,,---,0.00,VWS V14.01,2013-07-11 16:30:00,
2013-07-11 12:32:00,78.7,71.6,29.90,North,360,0.0,9.0,79,0.00,,---,0.00,VWS V14.01,2013-07-11 16:32:00,
2013-07-11 12:35:00,78.1,69.9,29.90,NNW,331,0.0,0.0,76,0.00,,---,0.00,VWS V14.01,2013-07-11 16:35:00,
2013-07-11 12:37:00,78.0,71.0,29.90,NNW,331,0.0,0.0,79,0.00,,---,0.00,VWS V14.01,2013-07-11 16:37:00,
2013-07-11 12:40:00,78.0,70.6,29.90,North,360,0.0,4.0,78,0.00,,---,0.00,VWS V14.01,2013-07-11 16:40:00,
2013-07-11 12:41:00,78.4,71.7,29.90,North,360,0.0,4.0,80,0.00,,---,0.00,VWS V14.01,2013-07-11 16:41:00,
2013-07-11 12:42:00,78.7,71.3,29.90,WNW,303,1.0,4.0,78,0.00,,---,0.00,VWS V14.01,2013-07-11 16:42:00,
2013-07-11 12:45:00,78.2,70.0,29.90,NNW,348,0.0,5.0,76,0.00,,---,0.00,VWS V14.01,2013-07-11 16:45:00,
2013-07-11 12:46:00,78.1,69.9,29.90,NNW,348,0.0,5.0,76,0.00,,---,0.00,VWS V14.01,2013-07-11 16:46:00,
2013-07-11 12:48:00,78.0,70.6,29.90,NNW,348,0.0,5.0,78,0.00,,---,0.00,VWS V14.01,2013-07-11 16:48:00,
2013-07-11 12:50:00,77.7,69.9,29.89,WNW,303,2.0,5.0,77,0.00,,---,0.00,VWS V14.01,2013-07-11 16:50:00,
2013-07-11 12:52:00,77.5,69.3,29.89,WNW,298,0.0,5.0,76,0.00,,---,0.00,VWS V14.01,2013-07-11 16:52:00,
2013-07-11 12:54:00,77.3,69.5,29.90,North,360,0.0,5.0,77,0.00,,---,0.00,VWS V14.01,2013-07-11 16:54:00,
2013-07-11 12:55:00,77.1,69.0,29.90,North,360,1.0,5.0,76,0.00,,---,0.00,VWS V14.01,2013-07-11 16:55:00,
2013-07-11 12:58:00,77.2,70.6,29.90,NNW,329,0.0,5.0,80,0.00,,---,0.00,VWS V14.01,2013-07-11 16:58:00,
2013-07-11 12:59:00,77.7,69.9,29.90,NW,319,3.0,5.0,77,0.00,,---,0.00,VWS V14.01,2013-07-11 16:59:00,
2013-07-11 13:01:00,77.6,69.8,29.89,WNW,293,0.0,5.0,77,0.00,,---,0.00,VWS V14.01,2013-07-11 17:01:00,
2013-07-11 13:04:00,77.1,69.3,29.90,NW,310,0.0,0.0,77,0.00,,---,0.00,VWS V14.01,2013-07-11 17:04:00,
2013-07-11 13:05:00,77.1,69.3,29.90,NW,311,0.0,0.0,77,0.00,,---,0.00,VWS V14.01,2013-07-11 17:05:00,
2013-07-11 13:06:00,77.3,69.5,29.90,NNE,18,0.0,3.0,77,0.00,,---,0.00,VWS V14.01,2013-07-11 17:06:00,
2013-07-11 13:10:00,77.4,68.5,29.90,North,5,4.0,9.0,74,0.00,,---,0.00,VWS V14.01,2013-07-11 17:10:00,
2013-07-11 13:11:00,77.1,67.8,29.90,North,5,8.0,9.0,73,0.00,,---,0.00,VWS V14.01,2013-07-11 17:11:00,
2013-07-11 13:15:00,76.5,68.0,29.90,NNE,27,0.0,9.0,75,0.00,,---,0.00,VWS V14.01,2013-07-11 17:15:00,
2013-07-11 13:16:00,76.4,68.3,29.90,North,350,3.0,9.0,76,0.00,,---,0.00,VWS V14.01,2013-07-11 17:16:00,
2013-07-11 13:17:00,76.4,69.0,29.89,North,355,0.0,9.0,78,0.00,,---,0.00,VWS V14.01,2013-07-11 17:17:00,
2013-07-11 13:20:00,76.9,69.2,29.89,NW,323,0.0,9.0,77,0.00,,---,0.00,VWS V14.01,2013-07-11 17:20:00,
2013-07-11 13:22:00,77.3,69.5,29.90,North,360,0.0,9.0,77,0.00,,---,0.00,VWS V14.01,2013-07-11 17:22:00,
2013-07-11 13:25:00,77.4,68.5,29.89,NE,44,0.0,9.0,74,0.00,,---,0.00,VWS V14.01,2013-07-11 17:25:00,
2013-07-11 13:27:00,77.4,68.9,29.89,NE,34,0.0,9.0,75,0.00,,---,0.00,VWS V14.01,2013-07-11 17:27:00,
2013-07-11 13:28:00,77.5,69.3,29.89,NNW,332,4.0,9.0,76,0.00,,---,0.00,VWS V14.01,2013-07-11 17:28:00,
2013-07-11 13:31:00,77.3,69.5,29.89,NE,34,0.0,9.0,77,0.00,,---,0.00,VWS V14.01,2013-07-11 17:31:00,
2013-07-11 13:32:00,77.3,69.5,29.89,NNE,30,0.0,9.0,77,0.00,,---,0.00,VWS V14.01,2013-07-11 17:32:00,
2013-07-11 13:33:00,77.2,69.4,29.89,NNE,21,0.0,9.0,77,0.00,,---,0.00,VWS V14.01,2013-07-11 17:33:00,
2013-07-11 13:37:00,77.4,68.9,29.89,NE,40,2.0,6.0,75,0.00,,---,0.00,VWS V14.01,2013-07-11 17:37:00,
2013-07-11 13:38:00,77.3,69.2,29.89,NNW,344,1.0,6.0,76,0.00,,---,0.00,VWS V14.01,2013-07-11 17:38:00,
2013-07-11 13:42:00,76.7,68.9,29.89,NNW,330,6.0,8.0,77,0.00,,---,0.00,VWS V14.01,2013-07-11 17:42:00,
2013-07-11 13:43:00,76.6,68.1,29.89,North,349,3.0,8.0,75,0.00,,---,0.00,VWS V14.01,2013-07-11 17:43:00,
2013-07-11 13:45:00,76.3,68.6,29.89,NW,311,0.0,8.0,77,0.00,,---,0.00,VWS V14.01,2013-07-11 17:45:00,
2013-07-11 13:47:00,75.9,68.6,29.90,NNW,334,0.0,8.0,78,0.00,,---,0.00,VWS V14.01,2013-07-11 17:47:00,
2013-07-11 13:48:00,75.8,68.8,29.89,NNW,331,1.0,8.0,79,0.00,,---,0.00,VWS V14.01,2013-07-11 17:48:00,
2013-07-11 13:50:00,75.5,68.2,29.90,NW,305,6.0,10.0,78,0.00,,---,0.00,VWS V14.01,2013-07-11 17:50:00,
2013-07-11 13:52:00,75.1,67.8,29.90,NNW,341,0.0,10.0,78,0.00,,---,0.00,VWS V14.01,2013-07-11 17:52:00,
2013-07-11 13:53:00,75.0,67.7,29.90,NNW,341,0.0,10.0,78,0.00,,---,0.00,VWS V14.01,2013-07-11 17:53:00,
2013-07-11 13:55:00,74.9,68.3,29.90,NNE,26,0.0,10.0,80,0.00,,---,0.00,VWS V14.01,2013-07-11 17:55:00,
2013-07-11 13:57:00,74.8,67.5,29.90,NNE,22,0.0,10.0,78,0.00,,---,0.00,VWS V14.01,2013-07-11 17:57:00,
2013-07-11 13:59:00,74.9,67.9,29.90,North,9,0.0,10.0,79,0.00,,---,0.00,VWS V14.01,2013-07-11 17:59:00,
2013-07-11 14:00:00,75.1,68.2,29.90,North,9,0.0,10.0,79,0.00,,---,0.00,VWS V14.01,2013-07-11 18:00:00,
2013-07-11 14:03:00,75.5,69.3,29.89,North,9,0.0,10.0,81,0.00,,---,0.00,VWS V14.01,2013-07-11 18:03:00,
2013-07-11 14:06:00,75.7,68.4,29.89,North,360,0.0,0.0,78,0.00,,---,0.00,VWS V14.01,2013-07-11 18:06:00,
2013-07-11 14:07:00,75.7,68.0,29.89,North,5,0.0,2.0,77,0.00,,---,0.00,VWS V14.01,2013-07-11 18:07:00,
2013-07-11 14:08:00,75.7,67.6,29.89,NW,315,0.0,4.0,76,0.00,,---,0.00,VWS V14.01,2013-07-11 18:08:00,
2013-07-11 14:12:00,76.4,69.8,29.89,NW,320,0.0,4.0,80,0.00,,---,0.00,VWS V14.01,2013-07-11 18:12:00,
2013-07-11 14:13:00,76.8,69.8,29.89,NNW,327,0.0,4.0,79,0.00,,---,0.00,VWS V14.01,2013-07-11 18:13:00,
2013-07-11 14:14:00,77.1,70.1,29.89,NNW,328,0.0,4.0,79,0.00,,---,0.00,VWS V14.01,2013-07-11 18:14:00,
2013-07-11 14:17:00,77.2,69.1,29.89,North,349,1.0,4.0,76,0.00,,---,0.00,VWS V14.01,2013-07-11 18:17:00,
2013-07-11 14:18:00,77.1,68.2,29.89,NNW,340,5.0,7.0,74,0.00,,---,0.00,VWS V14.01,2013-07-11 18:18:00,
2013-07-11 14:20:00,76.8,68.3,29.89,NNE,15,2.0,7.0,75,0.00,,---,0.00,VWS V14.01,2013-07-11 18:20:00,
2013-07-11 14:22:00,76.6,68.5,29.89,North,349,0.0,7.0,76,0.00,,---,0.00,VWS V14.01,2013-07-11 18:22:00,
2013-07-11 14:24:00,76.6,67.7,29.89,NNW,339,0.0,7.0,74,0.00,,---,0.00,VWS V14.01,2013-07-11 18:24:00,
2013-07-11 14:25:00,76.7,67.8,29.89,NNW,339,0.0,7.0,74,0.00,,---,0.00,VWS V14.01,2013-07-11 18:25:00,
2013-07-11 14:27:00,77.2,69.4,29.89,NNW,338,0.0,7.0,77,0.00,,---,0.00,VWS V14.01,2013-07-11 18:27:00,
2013-07-11 14:29:00,77.6,69.1,29.89,NNE,23,0.0,7.0,75,0.00,,---,0.00,VWS V14.01,2013-07-11 18:29:00,
2013-07-11 14:30:00,78.0,70.2,29.89,NNW,343,1.0,7.0,77,0.00,,---,0.00,VWS V14.01,2013-07-11 18:30:00,
2013-07-11 14:31:00,78.6,70.4,29.89,NNW,340,0.0,7.0,76,0.00,,---,0.00,VWS V14.01,2013-07-11 18:31:00,
2013-07-11 14:36:00,79.8,69.6,29.88,WNW,295,0.0,4.0,71,0.00,,---,0.00,VWS V14.01,2013-07-11 18:36:00,
2013-07-11 14:41:00,78.7,70.1,29.88,NW,309,0.0,4.0,75,0.00,,---,0.00,VWS V14.01,2013-07-11 18:41:00,
2013-07-11 14:42:00,78.7,70.5,29.88,NW,309,0.0,4.0,76,0.00,,---,0.00,VWS V14.01,2013-07-11 18:42:00,
2013-07-11 14:46:00,77.6,68.7,29.88,NW,309,0.0,4.0,74,0.00,,---,0.00,VWS V14.01,2013-07-11 18:46:00,
2013-07-11 14:47:00,77.4,68.5,29.88,NW,309,0.0,4.0,74,0.00,,---,0.00,VWS V14.01,2013-07-11 18:47:00,
2013-07-11 14:48:00,77.1,68.6,29.88,NW,309,0.0,4.0,75,0.00,,---,0.00,VWS V14.01,2013-07-11 18:48:00,
2013-07-11 14:51:00,76.5,69.1,29.88,WNW,298,0.0,4.0,78,0.00,,---,0.00,VWS V14.01,2013-07-11 18:51:00,
2013-07-11 14:52:00,76.5,69.1,29.88,WNW,298,0.0,4.0,78,0.00,,---,0.00,VWS V14.01,2013-07-11 18:52:00,
2013-07-11 14:53:00,76.4,69.0,29.89,WNW,298,0.0,4.0,78,0.00,,---,0.00,VWS V14.01,2013-07-11 18:53:00,
2013-07-11 14:56:00,78.1,71.1,29.88,WNW,298,0.0,4.0,79,0.00,,---,0.00,VWS V14.01,2013-07-11 18:56:00,
2013-07-11 14:57:00,78.1,71.1,29.88,WNW,298,1.0,4.0,79,0.00,,---,0.00,VWS V14.01,2013-07-11 18:57:00,
2013-07-11 14:58:00,78.0,68.7,29.88,WNW,298,0.0,4.0,73,0.00,,---,0.00,VWS V14.01,2013-07-11 18:58:00,
2013-07-11 14:59:00,77.8,68.5,29.88,WNW,298,0.0,4.0,73,0.00,,---,0.00,VWS V14.01,2013-07-11 18:59:00,
2013-07-11 15:02:00,78.2,70.0,29.88,WNW,298,0.0,4.0,76,0.00,,---,0.00,VWS V14.01,2013-07-11 19:02:00,
2013-07-11 15:04:00,78.5,69.5,29.88,WNW,298,0.0,4.0,74,0.00,,---,0.00,VWS V14.01,2013-07-11 19:04:00,
2013-07-11 15:05:00,78.7,70.5,29.88,WNW,298,0.0,0.0,76,0.00,,---,0.00,VWS V14.01,2013-07-11 19:05:00,
2013-07-11 15:07:00,78.9,69.5,29.88,North,355,1.0,6.0,73,0.00,,---,0.00,VWS V14.01,2013-07-11 19:07:00,
2013-07-11 15:08:00,78.9,69.5,29.88,North,355,0.0,6.0,73,0.00,,---,0.00,VWS V14.01,2013-07-11 19:08:00,
2013-07-11 15:10:00,79.3,69.1,29.88,NW,314,0.0,6.0,71,0.00,,---,0.00,VWS V14.01,2013-07-11 19:10:00,
2013-07-11 15:12:00,79.4,68.3,29.88,WSW,250,0.0,6.0,69,0.00,,---,0.00,VWS V14.01,2013-07-11 19:12:00,
2013-07-11 15:13:00,79.1,68.5,29.88,WSW,250,0.0,6.0,70,0.00,,---,0.00,VWS V14.01,2013-07-11 19:13:00,
2013-07-11 15:15:00,78.8,68.6,29.87,NNW,327,0.0,6.0,71,0.00,,---,0.00,VWS V14.01,2013-07-11 19:15:00,
2013-07-11 15:16:00,78.8,69.4,29.87,NNW,327,0.0,6.0,73,0.00,,---,0.00,VWS V14.01,2013-07-11 19:16:00,
2013-07-11 15:18:00,78.9,69.5,29.87,NNW,327,0.0,6.0,73,0.00,,---,0.00,VWS V14.01,2013-07-11 19:18:00,
2013-07-11 15:19:00,78.8,69.8,29.87,NNW,327,0.0,6.0,74,0.00,,---,0.00,VWS V14.01,2013-07-11 19:19:00,
2013-07-11 15:20:00,78.4,68.2,29.87,NNW,327,0.0,6.0,71,0.00,,---,0.00,VWS V14.01,2013-07-11 19:20:00,
2013-07-11 15:22:00,77.9,68.2,29.88,North,355,1.0,6.0,72,0.00,,---,0.00,VWS V14.01,2013-07-11 19:22:00,
2013-07-11 15:23:00,77.8,68.5,29.88,NNW,341,0.0,6.0,73,0.00,,---,0.00,VWS V14.01,2013-07-11 19:23:00,
2013-07-11 15:24:00,77.8,68.5,29.88,NNW,341,0.0,6.0,73,0.00,,---,0.00,VWS V14.01,2013-07-11 19:24:00,
2013-07-11 15:26:00,78.3,69.7,29.88,WSW,251,0.0,6.0,75,0.00,,---,0.00,VWS V14.01,2013-07-11 19:26:00,
2013-07-11 15:28:00,78.8,69.4,29.87,NNE,19,0.0,6.0,73,0.00,,---,0.00,VWS V14.01,2013-07-11 19:28:00,
2013-07-11 15:29:00,79.2,70.6,29.87,NNE,19,0.0,6.0,75,0.00,,---,0.00,VWS V14.01,2013-07-11 19:29:00,
2013-07-11 15:32:00,79.4,69.2,29.87,North,360,0.0,6.0,71,0.00,,---,0.00,VWS V14.01,2013-07-11 19:32:00,
2013-07-11 15:34:00,79.3,68.7,29.87,NNE,13,3.0,6.0,70,0.00,,---,0.00,VWS V14.01,2013-07-11 19:34:00,
2013-07-11 15:35:00,79.2,68.6,29.87,North,360,1.0,2.0,70,0.00,,---,0.00,VWS V14.01,2013-07-11 19:35:00,
2013-07-11 15:37:00,79.2,68.6,29.87,North,5,0.0,2.0,70,0.00,,---,0.00,VWS V14.01,2013-07-11 19:37:00,
2013-07-11 15:40:00,79.2,69.8,29.87,North,360,0.0,2.0,73,0.00,,---,0.00,VWS V14.01,2013-07-11 19:40:00,
2013-07-11 15:41:00,79.2,69.4,29.87,North,5,0.0,2.0,72,0.00,,---,0.00,VWS V14.01,2013-07-11 19:41:00,
2013-07-11 15:42:00,78.7,68.5,29.87,WNW,284,1.0,2.0,71,0.00,,---,0.00,VWS V14.01,2013-07-11 19:42:00,
2013-07-11 15:45:00,78.2,68.8,29.87,WNW,284,0.0,2.0,73,0.00,,---,0.00,VWS V14.01,2013-07-11 19:45:00,
2013-07-11 15:46:00,78.0,68.7,29.87,WNW,284,0.0,2.0,73,0.00,,---,0.00,VWS V14.01,2013-07-11 19:46:00,
2013-07-11 15:48:00,77.5,67.8,29.88,WNW,293,0.0,6.0,72,0.00,,---,0.00,VWS V14.01,2013-07-11 19:48:00,
2013-07-11 15:50:00,77.1,68.6,29.88,NNW,336,3.0,6.0,75,0.00,,---,0.00,VWS V14.01,2013-07-11 19:50:00,
2013-07-11 15:51:00,77.0,67.7,29.87,NNE,17,3.0,6.0,73,0.00,,---,0.00,VWS V14.01,2013-07-11 19:51:00,
2013-07-11 15:55:00,76.7,67.4,29.88,NNW,342,3.0,6.0,73,0.00,,---,0.00,VWS V14.01,2013-07-11 19:55:00,
2013-07-11 15:56:00,76.7,67.4,29.87,North,350,2.0,6.0,73,0.00,,---,0.00,VWS V14.01,2013-07-11 19:56:00,
2013-07-11 15:57:00,76.7,67.8,29.87,NNW,341,6.0,6.0,74,0.00,,---,0.00,VWS V14.01,2013-07-11 19:57:00,
2013-07-11 16:00:00,77.6,68.7,29.87,NNW,346,0.0,6.0,74,0.00,,---,0.00,VWS V14.01,2013-07-11 20:00:00,
2013-07-11 16:01:00,77.7,68.4,29.87,North,11,2.0,6.0,73,0.00,,---,0.00,VWS V14.01,2013-07-11 20:01:00,
2013-07-11 16:02:00,78.1,69.9,29.87,NNE,12,0.0,6.0,76,0.00,,---,0.00,VWS V14.01,2013-07-11 20:02:00,
2013-07-11 16:06:00,78.7,68.5,29.87,NNW,331,3.0,4.0,71,0.00,,---,0.00,VWS V14.01,2013-07-11 20:06:00,
2013-07-11 16:07:00,78.7,67.3,29.87,NNE,14,3.0,5.0,68,0.00,,---,0.00,VWS V14.01,2013-07-11 20:07:00,
2013-07-11 16:12:00,78.1,66.3,29.87,North,355,0.0,6.0,67,0.00,,---,0.00,VWS V14.01,2013-07-11 20:12:00,
2013-07-11 16:13:00,78.0,66.2,29.87,NNW,344,1.0,6.0,67,0.00,,---,0.00,VWS V14.01,2013-07-11 20:13:00,
2013-07-11 16:18:00,78.0,67.0,29.87,North,355,0.0,6.0,69,0.00,,---,0.00,VWS V14.01,2013-07-11 20:18:00,
2013-07-11 16:19:00,77.9,66.9,29.87,North,355,0.0,6.0,69,0.00,,---,0.00,VWS V14.01,2013-07-11 20:19:00,
2013-07-11 16:20:00,77.8,67.7,29.87,North,355,0.0,6.0,71,0.00,,---,0.00,VWS V14.01,2013-07-11 20:20:00,
2013-07-11 16:23:00,77.8,67.2,29.87,North,355,0.0,6.0,70,0.00,,---,0.00,VWS V14.01,2013-07-11 20:23:00,
2013-07-11 16:24:00,77.7,67.6,29.87,North,355,0.0,6.0,71,0.00,,---,0.00,VWS V14.01,2013-07-11 20:24:00,
2013-07-11 16:25:00,77.6,67.9,29.87,North,355,0.0,6.0,72,0.00,,---,0.00,VWS V14.01,2013-07-11 20:25:00,
2013-07-11 16:26:00,77.6,67.5,29.87,NW,323,0.0,6.0,71,0.00,,---,0.00,VWS V14.01,2013-07-11 20:26:00,
2013-07-11 16:28:00,77.5,67.8,29.86,NW,323,0.0,6.0,72,0.00,,---,0.00,VWS V14.01,2013-07-11 20:28:00,
2013-07-11 16:29:00,77.5,67.8,29.87,NW,323,0.0,6.0,72,0.00,,---,0.00,VWS V14.01,2013-07-11 20:29:00,
2013-07-11 16:30:00,77.6,67.5,29.86,NW,323,0.0,6.0,71,0.00,,---,0.00,VWS V14.01,2013-07-11 20:30:00,
2013-07-11 16:31:00,77.7,67.6,29.87,NW,326,0.0,6.0,71,0.00,,---,0.00,VWS V14.01,2013-07-11 20:31:00,
2013-07-11 16:34:00,77.6,66.6,29.87,West,281,0.0,6.0,69,0.00,,---,0.00,VWS V14.01,2013-07-11 20:34:00,
2013-07-11 16:35:00,77.5,66.9,29.87,NW,313,0.0,0.0,70,0.00,,---,0.00,VWS V14.01,2013-07-11 20:35:00,
2013-07-11 16:37:00,77.5,66.5,29.87,NW,321,0.0,0.0,69,0.00,,---,0.00,VWS V14.01,2013-07-11 20:37:00,
2013-07-11 16:39:00,77.7,68.4,29.87,NW,321,0.0,0.0,73,0.00,,---,0.00,VWS V14.01,2013-07-11 20:39:00,
2013-07-11 16:40:00,77.7,69.2,29.86,NW,321,0.0,0.0,75,0.00,,---,0.00,VWS V14.01,2013-07-11 20:40:00,
2013-07-11 16:43:00,77.5,67.4,29.87,NNW,335,0.0,1.0,71,0.00,,---,0.00,VWS V14.01,2013-07-11 20:43:00,
2013-07-11 16:45:00,77.2,66.2,29.87,NNW,330,1.0,4.0,69,0.00,,---,0.00,VWS V14.01,2013-07-11 20:45:00,
2013-07-11 16:48:00,77.1,67.0,29.87,NNE,21,0.0,6.0,71,0.00,,---,0.00,VWS V14.01,2013-07-11 20:48:00,
2013-07-11 16:49:00,77.2,67.1,29.87,NNE,21,0.0,6.0,71,0.00,,---,0.00,VWS V14.01,2013-07-11 20:49:00,
2013-07-11 16:50:00,77.2,67.9,29.87,NNE,21,0.0,6.0,73,0.00,,---,0.00,VWS V14.01,2013-07-11 20:50:00,
2013-07-11 16:51:00,77.2,67.9,29.87,NNE,21,0.0,6.0,73,0.00,,---,0.00,VWS V14.01,2013-07-11 20:51:00,
2013-07-11 16:54:00,77.0,67.3,29.87,NW,313,0.0,6.0,72,0.00,,---,0.00,VWS V14.01,2013-07-11 20:54:00,
2013-07-11 16:56:00,77.2,68.7,29.87,NW,313,0.0,6.0,75,0.00,,---,0.00,VWS V14.01,2013-07-11 20:56:00,
2013-07-11 16:59:00,77.5,69.3,29.87,NW,313,0.0,6.0,76,0.00,,---,0.00,VWS V14.01,2013-07-11 20:59:00,
2013-07-11 17:00:00,77.3,67.6,29.87,NW,313,0.0,6.0,72,0.00,,---,0.00,VWS V14.01,2013-07-11 21:00:00,
2013-07-11 17:01:00,77.3,67.6,29.88,NW,313,0.0,6.0,72,0.00,,---,0.00,VWS V14.01,2013-07-11 21:01:00,
2013-07-11 17:02:00,77.2,67.9,29.87,NW,313,0.0,6.0,73,0.00,,---,0.00,VWS V14.01,2013-07-11 21:02:00,
2013-07-11 17:05:00,77.0,67.7,29.87,West,277,0.0,3.0,73,0.00,,---,0.00,VWS V14.01,2013-07-11 21:05:00,
2013-07-11 17:06:00,76.9,67.6,29.87,NW,319,0.0,3.0,73,0.00,,---,0.00,VWS V14.01,2013-07-11 21:06:00,
2013-07-11 17:07:00,77.0,67.7,29.87,NW,319,0.0,3.0,73,0.00,,---,0.00,VWS V14.01,2013-07-11 21:07:00,
2013-07-11 17:10:00,77.1,68.6,29.88,NW,313,0.0,3.0,75,0.00,,---,0.00,VWS V14.01,2013-07-11 21:10:00,
2013-07-11 17:11:00,77.1,68.2,29.87,NW,313,0.0,3.0,74,0.00,,---,0.00,VWS V14.01,2013-07-11 21:11:00,
2013-07-11 17:13:00,77.0,67.3,29.88,NW,313,1.0,3.0,72,0.00,,---,0.00,VWS V14.01,2013-07-11 21:13:00,
2013-07-11 17:16:00,76.9,67.6,29.88,NW,313,0.0,3.0,73,0.00,,---,0.00,VWS V14.01,2013-07-11 21:16:00,
2013-07-11 17:18:00,76.7,67.8,29.88,NW,313,0.0,3.0,74,0.00,,---,0.00,VWS V14.01,2013-07-11 21:18:00,
2013-07-11 17:21:00,76.9,68.4,29.88,NW,313,0.0,3.0,75,0.00,,---,0.00,VWS V14.01,2013-07-11 21:21:00,
2013-07-11 17:22:00,76.9,68.0,29.88,NW,313,0.0,3.0,74,0.00,,---,0.00,VWS V14.01,2013-07-11 21:22:00,
2013-07-11 17:23:00,76.7,67.4,29.88,NW,321,1.0,3.0,73,0.00,,---,0.00,VWS V14.01,2013-07-11 21:23:00,
2013-07-11 17:27:00,76.5,67.2,29.88,NW,321,2.0,4.0,73,0.00,,---,0.00,VWS V14.01,2013-07-11 21:27:00,
2013-07-11 17:28:00,76.5,67.6,29.88,NW,321,0.0,4.0,74,0.00,,---,0.00,VWS V14.01,2013-07-11 21:28:00,
2013-07-11 17:29:00,76.4,67.9,29.88,NW,321,0.0,4.0,75,0.00,,---,0.00,VWS V14.01,2013-07-11 21:29:00,
2013-07-11 17:32:00,76.2,68.5,29.88,NW,321,0.0,4.0,77,0.00,,---,0.00,VWS V14.01,2013-07-11 21:32:00,
2013-07-11 17:33:00,76.1,68.4,29.88,NW,321,0.0,4.0,77,0.00,,---,0.00,VWS V14.01,2013-07-11 21:33:00,
2013-07-11 17:34:00,76.1,68.4,29.88,NNW,327,1.0,4.0,77,0.00,,---,0.00,VWS V14.01,2013-07-11 21:34:00,
2013-07-11 17:37:00,76.1,68.4,29.88,NNW,327,0.0,0.0,77,0.00,,---,0.00,VWS V14.01,2013-07-11 21:37:00,
2013-07-11 17:39:00,76.1,68.4,29.88,NW,326,0.0,0.0,77,0.00,,---,0.00,VWS V14.01,2013-07-11 21:39:00,
2013-07-11 17:40:00,76.1,68.8,29.88,NNW,327,0.0,0.0,78,0.00,,---,0.00,VWS V14.01,2013-07-11 21:40:00,
2013-07-11 17:42:00,76.1,68.4,29.88,NNW,327,0.0,3.0,77,0.00,,---,0.00,VWS V14.01,2013-07-11 21:42:00,
2013-07-11 17:45:00,76.0,67.5,29.88,NNW,327,0.0,3.0,75,0.00,,---,0.00,VWS V14.01,2013-07-11 21:45:00,
2013-07-11 17:46:00,76.0,67.5,29.88,NNW,327,0.0,3.0,75,0.00,,---,0.00,VWS V14.01,2013-07-11 21:46:00,
2013-07-11 17:47:00,76.0,67.9,29.88,NNW,331,2.0,3.0,76,0.00,,---,0.00,VWS V14.01,2013-07-11 21:47:00,
2013-07-11 17:50:00,76.0,68.3,29.88,NNW,332,1.0,3.0,77,0.00,,---,0.00,VWS V14.01,2013-07-11 21:50:00,
2013-07-11 17:51:00,75.9,67.8,29.88,NNW,332,0.0,3.0,76,0.00,,---,0.00,VWS V14.01,2013-07-11 21:51:00,
2013-07-11 17:54:00,75.8,68.1,29.88,NNW,333,0.0,3.0,77,0.00,,---,0.00,VWS V14.01,2013-07-11 21:54:00,
2013-07-11 17:55:00,75.8,67.7,29.88,NNE,14,0.0,4.0,76,0.00,,---,0.00,VWS V14.01,2013-07-11 21:55:00,
2013-07-11 17:56:00,75.8,68.1,29.88,NNE,14,0.0,4.0,77,0.00,,---,0.00,VWS V14.01,2013-07-11 21:56:00,
2013-07-11 17:59:00,75.7,68.4,29.87,NNE,14,0.0,4.0,78,0.00,,---,0.00,VWS V14.01,2013-07-11 21:59:00,
2013-07-11 18:00:00,75.7,68.7,29.87,NNE,14,0.0,4.0,79,0.00,,---,0.00,VWS V14.01,2013-07-11 22:00:00,
2013-07-11 18:01:00,75.7,68.4,29.87,NNE,14,0.0,4.0,78,0.00,,---,0.00,VWS V14.01,2013-07-11 22:01:00,
2013-07-11 18:04:00,75.7,68.4,29.88,NNE,14,0.0,4.0,78,0.00,,---,0.00,VWS V14.01,2013-07-11 22:04:00,
2013-07-11 18:05:00,75.7,68.4,29.87,NNE,14,0.0,0.0,78,0.00,,---,0.00,VWS V14.01,2013-07-11 22:05:00,
2013-07-11 18:06:00,75.7,68.4,29.87,NNE,14,0.0,1.0,78,0.00,,---,0.00,VWS V14.01,2013-07-11 22:06:00,
2013-07-11 18:07:00,75.7,68.0,29.87,NNE,14,0.0,1.0,77,0.00,,---,0.00,VWS V14.01,2013-07-11 22:07:00,
2013-07-11 18:10:00,75.6,67.5,29.87,NNE,13,2.0,4.0,76,0.00,,---,0.00,VWS V14.01,2013-07-11 22:10:00,
2013-07-11 18:12:00,75.6,68.3,29.88,NNE,13,0.0,4.0,78,0.00,,---,0.00,VWS V14.01,2013-07-11 22:12:00,
2013-07-11 18:15:00,75.5,68.5,29.88,NNE,13,0.0,4.0,79,0.00,,---,0.00,VWS V14.01,2013-07-11 22:15:00,
2013-07-11 18:16:00,75.5,68.5,29.88,NNE,13,0.0,4.0,79,0.00,,---,0.00,VWS V14.01,2013-07-11 22:16:00,
2013-07-11 18:17:00,75.5,68.2,29.88,NNE,13,0.0,4.0,78,0.00,,---,0.00,VWS V14.01,2013-07-11 22:17:00,
2013-07-11 18:18:00,75.5,68.2,29.88,NNE,13,0.0,4.0,78,0.00,,---,0.00,VWS V14.01,2013-07-11 22:18:00,
2013-07-11 18:21:00,75.6,68.6,29.88,NNE,13,0.0,4.0,79,0.00,,---,0.00,VWS V14.01,2013-07-11 22:21:00,
2013-07-11 18:23:00,75.7,68.0,29.88,NNE,13,0.0,4.0,77,0.00,,---,0.00,VWS V14.01,2013-07-11 22:23:00,
2013-07-11 18:26:00,75.7,68.4,29.88,NNE,13,0.0,4.0,78,0.00,,---,0.00,VWS V14.01,2013-07-11 22:26:00,
2013-07-11 18:28:00,75.7,68.4,29.88,NNE,13,0.0,4.0,78,0.00,,---,0.00,VWS V14.01,2013-07-11 22:28:00,
2013-07-11 18:31:00,75.6,67.1,29.88,NNE,13,3.0,5.0,75,0.00,,---,0.00,VWS V14.01,2013-07-11 22:31:00,
2013-07-11 18:34:00,75.5,67.4,29.88,North,355,0.0,5.0,76,0.00,,---,0.00,VWS V14.01,2013-07-11 22:34:00,
2013-07-11 18:37:00,75.5,67.8,29.88,North,355,0.0,1.0,77,0.00,,---,0.00,VWS V14.01,2013-07-11 22:37:00,
2013-07-11 18:39:00,75.4,67.7,29.88,North,11,5.0,5.0,77,0.00,,---,0.00,VWS V14.01,2013-07-11 22:39:00,
2013-07-11 18:40:00,75.3,67.6,29.88,NNE,26,5.0,5.0,77,0.00,,---,0.00,VWS V14.01,2013-07-11 22:40:00,
2013-07-11 18:42:00,75.3,68.0,29.88,North,9,0.0,5.0,78,0.00,,---,0.00,VWS V14.01,2013-07-11 22:42:00,
2013-07-11 18:43:00,75.3,68.0,29.88,North,9,0.0,5.0,78,0.00,,---,0.00,VWS V14.01,2013-07-11 22:43:00,
2013-07-11 18:45:00,75.2,67.9,29.88,North,355,4.0,5.0,78,0.00,,---,0.00,VWS V14.01,2013-07-11 22:45:00,
2013-07-11 18:47:00,75.1,68.2,29.88,North,355,0.0,5.0,79,0.00,,---,0.00,VWS V14.01,2013-07-11 22:47:00,
2013-07-11 18:48:00,75.0,68.1,29.89,North,355,0.0,5.0,79,0.00,,---,0.00,VWS V14.01,2013-07-11 22:48:00,
2013-07-11 18:51:00,75.0,68.1,29.89,North,355,0.0,5.0,79,0.00,,---,0.00,VWS V14.01,2013-07-11 22:51:00,
2013-07-11 18:54:00,75.0,68.1,29.89,North,355,0.0,5.0,79,0.00,,---,0.00,VWS V14.01,2013-07-11 22:54:00,
2013-07-11 18:56:00,74.9,67.9,29.89,North,360,0.0,5.0,79,0.00,,---,0.00,VWS V14.01,2013-07-11 22:56:00,
2013-07-11 18:57:00,74.9,67.9,29.89,North,360,2.0,5.0,79,0.00,,---,0.00,VWS V14.01,2013-07-11 22:57:00,
2013-07-11 18:59:00,74.9,67.9,29.89,North,360,0.0,5.0,79,0.00,,---,0.00,VWS V14.01,2013-07-11 22:59:00,
2013-07-11 19:01:00,74.9,67.9,29.89,North,349,0.0,5.0,79,0.00,,---,0.00,VWS V14.01,2013-07-11 23:01:00,
2013-07-11 19:04:00,74.9,68.3,29.89,North,349,0.0,5.0,80,0.00,,---,0.00,VWS V14.01,2013-07-11 23:04:00,
2013-07-11 19:05:00,74.9,67.9,29.89,North,349,0.0,0.0,79,0.00,,---,0.00,VWS V14.01,2013-07-11 23:05:00,
2013-07-11 19:06:00,74.8,68.2,29.89,North,360,4.0,4.0,80,0.00,,---,0.00,VWS V14.01,2013-07-11 23:06:00,
2013-07-11 19:08:00,74.7,68.1,29.89,North,360,0.0,4.0,80,0.00,,---,0.00,VWS V14.01,2013-07-11 23:08:00,
2013-07-11 19:10:00,74.7,68.1,29.89,North,360,1.0,4.0,80,0.00,,---,0.00,VWS V14.01,2013-07-11 23:10:00,
2013-07-11 19:11:00,74.7,67.8,29.89,North,360,0.0,4.0,79,0.00,,---,0.00,VWS V14.01,2013-07-11 23:11:00,
2013-07-11 19:16:00,74.6,68.0,29.89,North,9,0.0,5.0,80,0.00,,---,0.00,VWS V14.01,2013-07-11 23:16:00,
2013-07-11 19:17:00,74.5,67.9,29.89,North,9,0.0,5.0,80,0.00,,---,0.00,VWS V14.01,2013-07-11 23:17:00,
2013-07-11 19:21:00,74.3,67.4,29.90,North,355,0.0,5.0,79,0.00,,---,0.00,VWS V14.01,2013-07-11 23:21:00,
2013-07-11 19:23:00,74.3,67.7,29.90,North,355,2.0,5.0,80,0.00,,---,0.00,VWS V14.01,2013-07-11 23:23:00,
2013-07-11 19:26:00,74.2,67.6,29.90,North,355,0.0,5.0,80,0.00,,---,0.00,VWS V14.01,2013-07-11 23:26:00,
2013-07-11 19:27:00,74.2,67.6,29.90,North,355,0.0,5.0,80,0.00,,---,0.00,VWS V14.01,2013-07-11 23:27:00,
2013-07-11 19:29:00,74.2,67.6,29.90,North,355,0.0,5.0,80,0.00,,---,0.00,VWS V14.01,2013-07-11 23:29:00,
2013-07-11 19:32:00,74.1,67.9,29.90,North,355,0.0,5.0,81,0.00,,---,0.00,VWS V14.01,2013-07-11 23:32:00,
2013-07-11 19:33:00,74.1,67.9,29.90,North,355,0.0,5.0,81,0.00,,---,0.00,VWS V14.01,2013-07-11 23:33:00,
2013-07-11 19:34:00,74.0,67.8,29.90,North,355,0.0,5.0,81,0.00,,---,0.00,VWS V14.01,2013-07-11 23:34:00,
2013-07-11 19:37:00,73.9,67.3,29.90,North,355,0.0,2.0,80,0.00,,---,0.00,VWS V14.01,2013-07-11 23:37:00,
2013-07-11 19:38:00,73.9,67.3,29.90,North,355,0.0,2.0,80,0.00,,---,0.00,VWS V14.01,2013-07-11 23:38:00,
2013-07-11 19:39:00,73.9,67.7,29.90,North,355,0.0,2.0,81,0.00,,---,0.00,VWS V14.01,2013-07-11 23:39:00,
2013-07-11 19:43:00,73.8,67.2,29.91,North,355,3.0,4.0,80,0.00,,---,0.00,VWS V14.01,2013-07-11 23:43:00,
2013-07-11 19:44:00,73.8,67.2,29.91,North,355,0.0,4.0,80,0.00,,---,0.00,VWS V14.01,2013-07-11 23:44:00,
2013-07-11 19:45:00,73.8,67.2,29.91,North,355,0.0,4.0,80,0.00,,---,0.00,VWS V14.01,2013-07-11 23:45:00,
2013-07-11 19:48:00,73.8,67.2,29.91,NNW,348,0.0,4.0,80,0.00,,---,0.00,VWS V14.01,2013-07-11 23:48:00,
2013-07-11 19:49:00,73.7,67.2,29.91,NNW,348,0.0,4.0,80,0.00,,---,0.00,VWS V14.01,2013-07-11 23:49:00,
2013-07-11 19:50:00,73.7,67.2,29.91,NNW,348,0.0,4.0,80,0.00,,---,0.00,VWS V14.01,2013-07-11 23:50:00,
2013-07-11 19:51:00,73.7,67.2,29.91,NNW,348,2.0,4.0,80,0.00,,---,0.00,VWS V14.01,2013-07-11 23:51:00,
2013-07-11 19:54:00,73.7,67.2,29.91,NNW,348,0.0,4.0,80,0.00,,---,0.00,VWS V14.01,2013-07-11 23:54:00,
2013-07-11 19:55:00,73.7,67.2,29.91,NNW,348,0.0,4.0,80,0.00,,---,0.00,VWS V14.01,2013-07-11 23:55:00,
2013-07-11 19:56:00,73.6,67.1,29.91,NNW,348,0.0,4.0,80,0.00,,---,0.00,VWS V14.01,2013-07-11 23:56:00,
2013-07-11 20:00:00,73.5,67.0,29.91,NNW,348,0.0,4.0,80,0.00,,---,0.00,VWS V14.01,2013-07-12 00:00:00,
2013-07-11 20:01:00,73.4,66.9,29.91,NNW,348,0.0,4.0,80,0.00,,---,0.00,VWS V14.01,2013-07-12 00:01:00,
2013-07-11 20:05:00,73.3,66.8,29.91,NNW,348,0.0,0.0,80,0.00,,---,0.00,VWS V14.01,2013-07-12 00:05:00,
2013-07-11 20:06:00,73.3,67.1,29.91,NNW,348,0.0,0.0,81,0.00,,---,0.00,VWS V14.01,2013-07-12 00:06:00,
2013-07-11 20:10:00,73.2,67.4,29.91,NNW,348,0.0,0.0,82,0.00,,---,0.00,VWS V14.01,2013-07-12 00:10:00,
2013-07-11 20:12:00,73.1,67.6,29.91,NNW,348,0.0,0.0,83,0.00,,---,0.00,VWS V14.01,2013-07-12 00:12:00,
2013-07-11 20:15:00,72.7,67.2,29.91,NNW,348,0.0,0.0,83,0.00,,---,0.00,VWS V14.01,2013-07-12 00:15:00,
2013-07-11 20:17:00,72.5,67.4,29.90,NNW,348,2.0,2.0,84,0.00,,---,0.00,VWS V14.01,2013-07-12 00:17:00,
2013-07-11 20:21:00,72.4,66.9,29.91,NNW,348,0.0,2.0,83,0.00,,---,0.00,VWS V14.01,2013-07-12 00:21:00,
2013-07-11 20:22:00,72.4,66.9,29.90,NNW,348,0.0,2.0,83,0.00,,---,0.00,VWS V14.01,2013-07-12 00:22:00,
2013-07-11 20:23:00,72.5,66.7,29.90,NNW,348,0.0,2.0,82,0.00,,---,0.00,VWS V14.01,2013-07-12 00:23:00,
2013-07-11 20:26:00,72.6,66.8,29.91,NNW,348,0.0,2.0,82,0.00,,---,0.00,VWS V14.01,2013-07-12 00:26:00,
2013-07-11 20:27:00,72.6,66.8,29.91,NNW,348,0.0,2.0,82,0.00,,---,0.00,VWS V14.01,2013-07-12 00:27:00,
2013-07-11 20:28:00,72.6,67.2,29.91,NNW,348,0.0,2.0,83,0.00,,---,0.00,VWS V14.01,2013-07-12 00:28:00,
2013-07-11 20:31:00,72.6,66.8,29.91,NNW,348,0.0,2.0,82,0.00,,---,0.00,VWS V14.01,2013-07-12 00:31:00,
2013-07-11 20:32:00,72.6,66.8,29.91,NNW,348,0.0,2.0,82,0.00,,---,0.00,VWS V14.01,2013-07-12 00:32:00,
2013-07-11 20:33:00,72.6,66.8,29.91,NNW,348,0.0,2.0,82,0.00,,---,0.00,VWS V14.01,2013-07-12 00:33:00,
2013-07-11 20:34:00,72.6,66.8,29.91,NNW,348,0.0,2.0,82,0.00,,---,0.00,VWS V14.01,2013-07-12 00:34:00,
2013-07-11 20:37:00,72.5,66.7,29.91,NNW,348,0.0,0.0,82,0.00,,---,0.00,VWS V14.01,2013-07-12 00:37:00,
2013-07-11 20:38:00,72.5,66.7,29.91,NNW,348,0.0,0.0,82,0.00,,---,0.00,VWS V14.01,2013-07-12 00:38:00,
2013-07-11 20:39:00,72.5,67.1,29.91,NNW,348,0.0,0.0,83,0.00,,---,0.00,VWS V14.01,2013-07-12 00:39:00,
2013-07-11 20:40:00,72.5,67.1,29.91,NNW,348,0.0,0.0,83,0.00,,---,0.00,VWS V14.01,2013-07-12 00:40:00,
2013-07-11 20:43:00,72.3,66.8,29.91,NNW,348,0.0,0.0,83,0.00,,---,0.00,VWS V14.01,2013-07-12 00:43:00,
2013-07-11 20:44:00,72.3,66.5,29.90,NNW,348,0.0,0.0,82,0.00,,---,0.00,VWS V14.01,2013-07-12 00:44:00,
2013-07-11 20:45:00,72.3,66.5,29.90,NNW,348,0.0,0.0,82,0.00,,---,0.00,VWS V14.01,2013-07-12 00:45:00,
2013-07-11 20:48:00,72.3,66.5,29.90,NNW,348,0.0,0.0,82,0.00,,---,0.00,VWS V14.01,2013-07-12 00:48:00,
2013-07-11 20:50:00,72.2,66.4,29.90,NNW,348,0.0,0.0,82,0.00,,---,0.00,VWS V14.01,2013-07-12 00:50:00,
2013-07-11 20:51:00,72.2,66.4,29.90,NNW,348,0.0,1.0,82,0.00,,---,0.00,VWS V14.01,2013-07-12 00:51:00,
2013-07-11 20:54:00,72.1,65.9,29.90,NNW,348,0.0,2.0,81,0.00,,---,0.00,VWS V14.01,2013-07-12 00:54:00,
2013-07-11 20:56:00,72.0,65.9,29.90,NNW,348,0.0,2.0,81,0.00,,---,0.00,VWS V14.01,2013-07-12 00:56:00,
2013-07-11 21:00:00,71.9,65.8,29.90,NNW,348,0.0,3.0,81,0.00,,---,0.00,VWS V14.01,2013-07-12 01:00:00,
2013-07-11 21:01:00,71.9,65.4,29.89,NNW,348,0.0,3.0,80,0.00,,---,0.00,VWS V14.01,2013-07-12 01:01:00,
2013-07-11 21:02:00,71.9,65.4,29.89,NNW,348,0.0,3.0,80,0.00,,---,0.00,VWS V14.01,2013-07-12 01:02:00,
2013-07-11 21:06:00,71.8,64.9,29.89,NNW,348,0.0,0.0,79,0.00,,---,0.00,VWS V14.01,2013-07-12 01:06:00,
2013-07-11 21:07:00,71.8,64.9,29.89,NNW,348,0.0,0.0,79,0.00,,---,0.00,VWS V14.01,2013-07-12 01:07:00,
2013-07-11 21:08:00,71.8,64.9,29.89,NNW,348,0.0,0.0,79,0.00,,---,0.00,VWS V14.01,2013-07-12 01:08:00,
2013-07-11 21:11:00,71.8,64.9,29.89,NNW,348,0.0,0.0,79,0.00,,---,0.00,VWS V14.01,2013-07-12 01:11:00,
2013-07-11 21:12:00,71.7,64.8,29.89,NNW,348,0.0,0.0,79,0.00,,---,0.00,VWS V14.01,2013-07-12 01:12:00,
2013-07-11 21:13:00,71.7,64.8,29.89,NNW,348,0.0,0.0,79,0.00,,---,0.00,VWS V14.01,2013-07-12 01:13:00,
2013-07-11 21:16:00,71.6,64.4,29.89,NE,36,1.0,2.0,78,0.00,,---,0.00,VWS V14.01,2013-07-12 01:16:00,
2013-07-11 21:17:00,71.7,64.5,29.89,NE,36,0.0,2.0,78,0.00,,---,0.00,VWS V14.01,2013-07-12 01:17:00,
2013-07-11 21:18:00,71.6,64.4,29.89,NE,36,0.0,2.0,78,0.00,,---,0.00,VWS V14.01,2013-07-12 01:18:00,
2013-07-11 21:21:00,71.5,64.7,29.89,NE,36,0.0,2.0,79,0.00,,---,0.00,VWS V14.01,2013-07-12 01:21:00,
2013-07-11 21:22:00,71.5,64.7,29.89,NE,36,0.0,2.0,79,0.00,,---,0.00,VWS V14.01,2013-07-12 01:22:00,
2013-07-11 21:23:00,71.5,64.7,29.89,NE,36,0.0,2.0,79,0.00,,---,0.00,VWS V14.01,2013-07-12 01:23:00,
2013-07-11 21:24:00,71.5,64.7,29.89,NE,36,0.0,2.0,79,0.00,,---,0.00,VWS V14.01,2013-07-12 01:24:00,
2013-07-11 21:27:00,71.4,64.2,29.90,NE,36,0.0,2.0,78,0.00,,---,0.00,VWS V14.01,2013-07-12 01:27:00,
2013-07-11 21:29:00,71.4,64.2,29.90,NE,36,0.0,2.0,78,0.00,,---,0.00,VWS V14.01,2013-07-12 01:29:00,
2013-07-11 21:30:00,71.4,64.2,29.90,NE,36,0.0,2.0,78,0.00,,---,0.00,VWS V14.01,2013-07-12 01:30:00,
2013-07-11 21:33:00,71.3,64.1,29.90,NE,36,0.0,2.0,78,0.00,,---,0.00,VWS V14.01,2013-07-12 01:33:00,
2013-07-11 21:34:00,71.3,64.1,29.91,NE,36,0.0,2.0,78,0.00,,---,0.00,VWS V14.01,2013-07-12 01:34:00,
2013-07-11 21:35:00,71.3,64.1,29.91,NE,36,0.0,0.0,78,0.00,,---,0.00,VWS V14.01,2013-07-12 01:35:00,
2013-07-11 21:38:00,71.3,64.1,29.91,NE,36,0.0,0.0,78,0.00,,---,0.00,VWS V14.01,2013-07-12 01:38:00,
2013-07-11 21:39:00,71.3,64.1,29.91,NE,36,0.0,0.0,78,0.00,,---,0.00,VWS V14.01,2013-07-12 01:39:00,
2013-07-11 21:40:00,71.3,64.1,29.91,NE,36,0.0,0.0,78,0.00,,---,0.00,VWS V14.01,2013-07-12 01:40:00,
2013-07-11 21:41:00,71.3,64.1,29.91,NE,36,0.0,0.0,78,0.00,,---,0.00,VWS V14.01,2013-07-12 01:41:00,
2013-07-11 21:44:00,71.3,63.7,29.91,NE,36,0.0,0.0,77,0.00,,---,0.00,VWS V14.01,2013-07-12 01:44:00,
2013-07-11 21:45:00,71.3,63.7,29.91,NE,36,0.0,0.0,77,0.00,,---,0.00,VWS V14.01,2013-07-12 01:45:00,
2013-07-11 21:47:00,71.3,63.7,29.91,NE,36,0.0,0.0,77,0.00,,---,0.00,VWS V14.01,2013-07-12 01:47:00,
2013-07-11 21:50:00,71.3,63.7,29.91,NE,36,0.0,0.0,77,0.00,,---,0.00,VWS V14.01,2013-07-12 01:50:00,
2013-07-11 21:51:00,71.3,63.7,29.91,NE,36,0.0,0.0,77,0.00,,---,0.00,VWS V14.01,2013-07-12 01:51:00,
2013-07-11 21:54:00,71.2,63.6,29.91,NE,36,0.0,0.0,77,0.00,,---,0.00,VWS V14.01,2013-07-12 01:54:00,
2013-07-11 21:55:00,71.2,63.6,29.92,NE,36,0.0,0.0,77,0.00,,---,0.00,VWS V14.01,2013-07-12 01:55:00,
2013-07-11 21:57:00,71.2,63.6,29.91,NE,36,0.0,0.0,77,0.00,,---,0.00,VWS V14.01,2013-07-12 01:57:00,
2013-07-11 21:59:00,71.3,63.7,29.91,NE,36,0.0,0.0,77,0.00,,---,0.00,VWS V14.01,2013-07-12 01:59:00,
2013-07-11 22:00:00,71.3,63.7,29.91,NE,36,0.0,0.0,77,0.00,,---,0.00,VWS V14.01,2013-07-12 02:00:00,
2013-07-11 22:02:00,71.2,63.6,29.91,NE,36,0.0,0.0,77,0.00,,---,0.00,VWS V14.01,2013-07-12 02:02:00,
2013-07-11 22:05:00,71.1,63.5,29.91,NE,36,0.0,0.0,77,0.00,,---,0.00,VWS V14.01,2013-07-12 02:05:00,
2013-07-11 22:06:00,71.1,63.5,29.91,NE,36,0.0,0.0,77,0.00,,---,0.00,VWS V14.01,2013-07-12 02:06:00,
2013-07-11 22:07:00,71.1,63.9,29.91,NE,36,0.0,0.0,78,0.00,,---,0.00,VWS V14.01,2013-07-12 02:07:00,
2013-07-11 22:10:00,71.0,63.4,29.91,NE,36,0.0,0.0,77,0.00,,---,0.00,VWS V14.01,2013-07-12 02:10:00,
2013-07-11 22:11:00,71.0,63.4,29.91,NE,36,0.0,0.0,77,0.00,,---,0.00,VWS V14.01,2013-07-12 02:11:00,
2013-07-11 22:12:00,71.1,63.5,29.91,NE,36,0.0,0.0,77,0.00,,---,0.00,VWS V14.01,2013-07-12 02:12:00,
2013-07-11 22:13:00,71.1,63.5,29.91,NE,36,0.0,0.0,77,0.00,,---,0.00,VWS V14.01,2013-07-12 02:13:00,
2013-07-11 22:18:00,71.1,63.5,29.91,NE,36,0.0,2.0,77,0.00,,---,0.00,VWS V14.01,2013-07-12 02:18:00,
2013-07-11 22:19:00,71.1,63.5,29.91,NE,36,0.0,2.0,77,0.00,,---,0.00,VWS V14.01,2013-07-12 02:19:00,
2013-07-11 22:23:00,71.1,63.5,29.91,NE,36,0.0,2.0,77,0.00,,---,0.00,VWS V14.01,2013-07-12 02:23:00,
2013-07-11 22:24:00,71.1,63.5,29.91,NE,36,0.0,2.0,77,0.00,,---,0.00,VWS V14.01,2013-07-12 02:24:00,
2013-07-11 22:28:00,71.0,63.1,29.91,NE,36,0.0,2.0,76,0.00,,---,0.00,VWS V14.01,2013-07-12 02:28:00,
2013-07-11 22:29:00,71.0,63.1,29.91,NE,36,0.0,2.0,76,0.00,,---,0.00,VWS V14.01,2013-07-12 02:29:00,
2013-07-11 22:30:00,71.0,63.1,29.91,NE,36,0.0,2.0,76,0.00,,---,0.00,VWS V14.01,2013-07-12 02:30:00,
2013-07-11 22:34:00,71.0,63.1,29.91,NE,36,0.0,2.0,76,0.00,,---,0.00,VWS V14.01,2013-07-12 02:34:00,
2013-07-11 22:35:00,71.0,63.4,29.91,NE,36,0.0,0.0,77,0.00,,---,0.00,VWS V14.01,2013-07-12 02:35:00,
2013-07-11 22:36:00,70.9,63.3,29.91,NE,36,0.0,0.0,77,0.00,,---,0.00,VWS V14.01,2013-07-12 02:36:00,
2013-07-11 22:39:00,70.8,63.2,29.91,NE,36,0.0,1.0,77,0.00,,---,0.00,VWS V14.01,2013-07-12 02:39:00,
2013-07-11 22:40:00,70.8,63.2,29.90,NE,36,0.0,1.0,77,0.00,,---,0.00,VWS V14.01,2013-07-12 02:40:00,
2013-07-11 22:41:00,70.7,63.1,29.91,NE,36,0.0,1.0,77,0.00,,---,0.00,VWS V14.01,2013-07-12 02:41:00,
2013-07-11 22:45:00,70.6,63.0,29.91,North,360,0.0,1.0,77,0.00,,---,0.00,VWS V14.01,2013-07-12 02:45:00,
2013-07-11 22:46:00,70.6,63.0,29.91,North,360,0.0,1.0,77,0.00,,---,0.00,VWS V14.01,2013-07-12 02:46:00,
2013-07-11 22:48:00,70.6,63.0,29.91,North,360,2.0,2.0,77,0.00,,---,0.00,VWS V14.01,2013-07-12 02:48:00,
2013-07-11 22:50:00,70.6,63.0,29.91,North,360,0.0,2.0,77,0.00,,---,0.00,VWS V14.01,2013-07-12 02:50:00,
2013-07-11 22:51:00,70.6,63.0,29.91,North,360,0.0,2.0,77,0.00,,---,0.00,VWS V14.01,2013-07-12 02:51:00,
2013-07-11 22:53:00,70.5,63.3,29.91,North,360,0.0,2.0,78,0.00,,---,0.00,VWS V14.01,2013-07-12 02:53:00,
2013-07-11 22:55:00,70.4,63.2,29.91,North,360,0.0,2.0,78,0.00,,---,0.00,VWS V14.01,2013-07-12 02:55:00,
2013-07-11 22:56:00,70.4,63.2,29.91,North,360,0.0,2.0,78,0.00,,---,0.00,VWS V14.01,2013-07-12 02:56:00,
2013-07-11 22:59:00,70.3,63.1,29.91,North,360,0.0,2.0,78,0.00,,---,0.00,VWS V14.01,2013-07-12 02:59:00,
2013-07-11 23:00:00,70.3,63.1,29.91,North,360,0.0,2.0,78,0.00,,---,0.00,VWS V14.01,2013-07-12 03:00:00,
2013-07-11 23:02:00,70.3,63.1,29.91,North,360,0.0,2.0,78,0.00,,---,0.00,VWS V14.01,2013-07-12 03:02:00,
2013-07-11 23:05:00,70.3,62.8,29.90,North,360,0.0,0.0,77,0.00,,---,0.00,VWS V14.01,2013-07-12 03:05:00,
2013-07-11 23:06:00,70.3,62.4,29.90,North,360,0.0,0.0,76,0.00,,---,0.00,VWS V14.01,2013-07-12 03:06:00,
2013-07-11 23:07:00,70.4,62.1,29.90,North,360,0.0,0.0,75,0.00,,---,0.00,VWS V14.01,2013-07-12 03:07:00,
2013-07-11 23:10:00,70.4,62.1,29.90,North,360,0.0,0.0,75,0.00,,---,0.00,VWS V14.01,2013-07-12 03:10:00,
2013-07-11 23:12:00,70.5,62.2,29.90,North,360,0.0,0.0,75,0.00,,---,0.00,VWS V14.01,2013-07-12 03:12:00,
2013-07-11 23:13:00,70.5,62.2,29.90,North,360,0.0,0.0,75,0.00,,---,0.00,VWS V14.01,2013-07-12 03:13:00,
2013-07-11 23:14:00,70.6,62.3,29.90,North,360,0.0,0.0,75,0.00,,---,0.00,VWS V14.01,2013-07-12 03:14:00,
2013-07-11 23:15:00,70.6,61.9,29.90,North,360,0.0,0.0,74,0.00,,---,0.00,VWS V14.01,2013-07-12 03:15:00,
2013-07-11 23:17:00,70.6,62.3,29.90,North,360,0.0,0.0,75,0.00,,---,0.00,VWS V14.01,2013-07-12 03:17:00,
2013-07-11 23:19:00,70.6,62.3,29.90,North,360,0.0,0.0,75,0.00,,---,0.00,VWS V14.01,2013-07-12 03:19:00,
2013-07-11 23:20:00,70.6,62.3,29.90,North,360,0.0,0.0,75,0.00,,---,0.00,VWS V14.01,2013-07-12 03:20:00,
2013-07-11 23:22:00,70.6,62.3,29.90,North,360,0.0,1.0,75,0.00,,---,0.00,VWS V14.01,2013-07-12 03:22:00,
2013-07-11 23:25:00,70.5,62.2,29.90,North,360,0.0,1.0,75,0.00,,---,0.00,VWS V14.01,2013-07-12 03:25:00,
2013-07-11 23:26:00,70.5,62.2,29.90,North,360,0.0,1.0,75,0.00,,---,0.00,VWS V14.01,2013-07-12 03:26:00,
2013-07-11 23:28:00,70.5,62.2,29.90,North,360,0.0,1.0,75,0.00,,---,0.00,VWS V14.01,2013-07-12 03:28:00,
2013-07-11 23:30:00,70.5,62.2,29.90,North,360,0.0,2.0,75,0.00,,---,0.00,VWS V14.01,2013-07-12 03:30:00,
2013-07-11 23:32:00,70.5,62.2,29.90,North,360,0.0,2.0,75,0.00,,---,0.00,VWS V14.01,2013-07-12 03:32:00,
2013-07-11 23:33:00,70.5,62.2,29.90,North,360,0.0,2.0,75,0.00,,---,0.00,VWS V14.01,2013-07-12 03:33:00,
2013-07-11 23:37:00,70.4,62.1,29.90,North,360,0.0,2.0,75,0.00,,---,0.00,VWS V14.01,2013-07-12 03:37:00,
2013-07-11 23:38:00,70.3,62.0,29.90,North,360,0.0,2.0,75,0.00,,---,0.00,VWS V14.01,2013-07-12 03:38:00,
2013-07-11 23:39:00,70.3,62.0,29.90,North,360,0.0,2.0,75,0.00,,---,0.00,VWS V14.01,2013-07-12 03:39:00,
2013-07-11 23:42:00,70.2,61.9,29.90,North,360,0.0,2.0,75,0.00,,---,0.00,VWS V14.01,2013-07-12 03:42:00,
2013-07-11 23:45:00,70.3,62.0,29.90,North,360,0.0,2.0,75,0.00,,---,0.00,VWS V14.01,2013-07-12 03:45:00,
2013-07-11 23:48:00,70.4,62.1,29.90,North,360,0.0,2.0,75,0.00,,---,0.00,VWS V14.01,2013-07-12 03:48:00,
2013-07-11 23:49:00,70.4,62.1,29.90,North,360,0.0,2.0,75,0.00,,---,0.00,VWS V14.01,2013-07-12 03:49:00,
2013-07-11 23:50:00,70.4,61.7,29.90,North,360,0.0,2.0,74,0.00,,---,0.00,VWS V14.01,2013-07-12 03:50:00,
2013-07-11 23:51:00,70.4,61.7,29.90,North,360,0.0,2.0,74,0.00,,---,0.00,VWS V14.01,2013-07-12 03:51:00,
2013-07-11 23:53:00,70.3,62.0,29.90,North,360,0.0,2.0,75,0.00,,---,0.00,VWS V14.01,2013-07-12 03:53:00,
2013-07-11 23:54:00,70.4,61.7,29.90,North,360,0.0,2.0,74,0.00,,---,0.00,VWS V14.01,2013-07-12 03:54:00,
2013-07-11 23:56:00,70.4,61.7,29.90,North,360,0.0,2.0,74,0.00,,---,0.00,VWS V14.01,2013-07-12 03:56:00,
2013-07-11 23:58:00,70.3,61.6,29.90,North,360,0.0,2.0,74,0.00,,---,0.00,VWS V14.01,2013-07-12 03:58:00,
2013-07-11 23:59:00,70.3,61.6,29.90,North,360,0.0,2.0,74,0.00,,---,0.00,VWS V14.01,2013-07-12 03:59:00,